AFR406 LFPG-SCEL

Flight info

Callsign AFR406
Flight time 13h 54m
Altitude 33000
Route LGL UT176 ROLEN UZ15 DIDAK DCT AKEMO DCT RIVAK/M085F340 DCT SIVIR DCT 45N015W 43N020W 35N030W/M085F360 30N034W 25N039W 20N043W/N0488F380 15N045W DCT PANON DCT CYR UL306 NISKI DCT OBGUX DCT LODOK/N0485F400 DCT SUSNO UL322 VIR UL540 SOTKU/N0485F410 UT293 ENTOP UQ815 SIMOK BAYOS9
Aircraft A359/H-SDE2E3GHIJ3J4J5LM1ORWXY/LB1D1

Departure

Time 2026-05-03 22:10
Airport Charles de Gaulle International Airport (LFPG)

Arrival

Time 2026-05-04 12:05
Airport Comodoro Arturo Merino Benítez International Airport (SCEL)
Time Latitude Longitude Altitude Speed Heading
2026-05-03 21:48 49.00562 2.58582 361 ft 0 kts 266°
2026-05-03 22:00 49.00563 2.58595 360 ft 4 kts 268°
2026-05-03 22:00 49.00563 2.58636 364 ft 4 kts 271°
2026-05-03 22:01 49.00563 2.58677 366 ft 4 kts 264°
2026-05-03 22:01 49.00569 2.58709 365 ft 4 kts 204°
2026-05-03 22:01 49.00589 2.58710 367 ft 4 kts 175°
2026-05-03 22:01 49.00612 2.58707 363 ft 1 kts 175°
2026-05-03 22:02 49.00600 2.58709 360 ft 0 kts 175°
2026-05-03 22:05 49.00572 2.58713 366 ft 9 kts 175°
2026-05-03 22:06 49.00486 2.58723 366 ft 16 kts 176°
2026-05-03 22:06 49.00359 2.58739 367 ft 19 kts 174°
2026-05-03 22:06 49.00232 2.58755 362 ft 18 kts 175°
2026-05-03 22:06 49.00113 2.58772 368 ft 16 kts 176°
2026-05-03 22:07 49.00044 2.58856 362 ft 13 kts 96°
2026-05-03 22:07 49.00048 2.59000 366 ft 15 kts 84°
2026-05-03 22:07 49.00058 2.59173 366 ft 18 kts 85°
2026-05-03 22:07 49.00069 2.59379 364 ft 21 kts 86°
2026-05-03 22:08 49.00082 2.59609 367 ft 22 kts 85°
2026-05-03 22:08 49.00092 2.59838 366 ft 21 kts 86°
2026-05-03 22:08 49.00104 2.60059 363 ft 20 kts 85°
2026-05-03 22:08 49.00083 2.60220 369 ft 14 kts 145°
2026-05-03 22:09 48.99993 2.60239 366 ft 13 kts 175°
2026-05-03 22:09 48.99908 2.60225 365 ft 12 kts 209°
2026-05-03 22:09 48.99835 2.60123 368 ft 14 kts 243°
2026-05-03 22:10 48.99790 2.59432 364 ft 82 kts 265°
2026-05-03 22:10 48.99727 2.58274 367 ft 135 kts 265°
2026-05-03 22:10 48.99643 2.56622 371 ft 180 kts 264°
2026-05-03 22:10 48.99548 2.54743 994 ft 177 kts 263°
2026-05-03 22:11 48.99445 2.52875 1635 ft 180 kts 264°
2026-05-03 22:11 48.99336 2.50908 1897 ft 193 kts 263°
2026-05-03 22:11 48.99217 2.48774 2047 ft 210 kts 263°
2026-05-03 22:11 48.99091 2.46471 2243 ft 228 kts 264°
2026-05-03 22:12 48.98960 2.43961 2466 ft 244 kts 264°
2026-05-03 22:12 48.98818 2.41396 2920 ft 249 kts 264°
2026-05-03 22:12 48.98670 2.38750 3468 ft 251 kts 264°
2026-05-03 22:12 48.98521 2.36085 3977 ft 254 kts 264°
2026-05-03 22:13 48.98374 2.33401 4509 ft 255 kts 264°
2026-05-03 22:13 48.98227 2.30694 5031 ft 257 kts 263°
2026-05-03 22:13 48.98072 2.27977 5550 ft 259 kts 263°
2026-05-03 22:13 48.97919 2.25279 6076 ft 261 kts 263°
2026-05-03 22:14 48.97760 2.22483 6623 ft 262 kts 263°
2026-05-03 22:14 48.97604 2.19739 7161 ft 264 kts 263°
2026-05-03 22:14 48.97442 2.16901 7710 ft 267 kts 263°
2026-05-03 22:14 48.97282 2.14115 8252 ft 268 kts 263°
2026-05-03 22:15 48.97119 2.11278 8836 ft 270 kts 263°
2026-05-03 22:15 48.96954 2.08418 9405 ft 272 kts 263°
2026-05-03 22:15 48.96787 2.05535 9965 ft 274 kts 263°
2026-05-03 22:15 48.96616 2.02604 10302 ft 284 kts 262°
2026-05-03 22:16 48.96433 1.99528 10535 ft 299 kts 262°
2026-05-03 22:16 48.96243 1.96299 10735 ft 313 kts 262°
2026-05-03 22:16 48.96043 1.92929 10969 ft 326 kts 263°
2026-05-03 22:16 48.95835 1.89420 11189 ft 339 kts 263°
2026-05-03 22:17 48.95625 1.85824 11398 ft 352 kts 263°
2026-05-03 22:17 48.95396 1.82010 11624 ft 363 kts 262°
2026-05-03 22:17 48.95165 1.78201 11943 ft 370 kts 262°
2026-05-03 22:17 48.94926 1.74270 12395 ft 375 kts 262°
2026-05-03 22:18 48.94685 1.70303 12847 ft 378 kts 262°
2026-05-03 22:18 48.94439 1.66297 13384 ft 380 kts 262°
2026-05-03 22:18 48.94192 1.62283 13869 ft 383 kts 262°
2026-05-03 22:18 48.93940 1.58236 14328 ft 385 kts 262°
2026-05-03 22:19 48.93686 1.54168 14786 ft 387 kts 262°
2026-05-03 22:19 48.93429 1.50076 15235 ft 390 kts 262°
2026-05-03 22:19 48.93169 1.45958 15681 ft 392 kts 262°
2026-05-03 22:19 48.92906 1.41818 16148 ft 394 kts 262°
2026-05-03 22:20 48.92639 1.37654 16585 ft 397 kts 262°
2026-05-03 22:20 48.92370 1.33465 17026 ft 399 kts 262°
2026-05-03 22:20 48.92097 1.29244 17468 ft 402 kts 262°
2026-05-03 22:20 48.91820 1.24989 17867 ft 405 kts 262°
2026-05-03 22:21 48.91541 1.20717 18316 ft 407 kts 262°
2026-05-03 22:21 48.91262 1.16476 18726 ft 409 kts 261°
2026-05-03 22:21 48.90977 1.12172 19153 ft 410 kts 261°
2026-05-03 22:21 48.90689 1.07839 19582 ft 412 kts 261°
2026-05-03 22:22 48.90399 1.03503 20034 ft 413 kts 261°
2026-05-03 22:22 48.90107 0.99162 20498 ft 415 kts 261°
2026-05-03 22:22 48.89811 0.94781 20930 ft 417 kts 261°
2026-05-03 22:22 48.89512 0.90391 21356 ft 418 kts 261°
2026-05-03 22:23 48.89210 0.85988 21804 ft 420 kts 261°
2026-05-03 22:23 48.88749 0.81592 22123 ft 422 kts 253°
2026-05-03 22:23 48.87735 0.77431 22558 ft 420 kts 242°
2026-05-03 22:23 48.86391 0.73509 23020 ft 420 kts 240°
2026-05-03 22:24 48.84986 0.69585 23435 ft 422 kts 239°
2026-05-03 22:24 48.83578 0.65658 23793 ft 424 kts 239°
2026-05-03 22:24 48.82168 0.61717 24172 ft 426 kts 239°
2026-05-03 22:24 48.80754 0.57764 24528 ft 427 kts 239°
2026-05-03 22:25 48.79297 0.53894 24878 ft 427 kts 235°
2026-05-03 22:25 48.77557 0.50256 25257 ft 427 kts 230°
2026-05-03 22:25 48.75683 0.46755 25612 ft 428 kts 229°
2026-05-03 22:25 48.73753 0.43325 25998 ft 429 kts 228°
2026-05-03 22:26 48.71784 0.39892 26210 ft 434 kts 227°
2026-05-03 22:26 48.69795 0.36434 26545 ft 435 kts 227°
2026-05-03 22:26 48.67812 0.32972 26921 ft 436 kts 227°
2026-05-03 22:26 48.65826 0.29486 27274 ft 437 kts 227°
2026-05-03 22:27 48.63849 0.26002 27630 ft 437 kts 227°
2026-05-03 22:27 48.61872 0.22512 28003 ft 437 kts 227°
2026-05-03 22:27 48.59891 0.19014 28298 ft 439 kts 227°
2026-05-03 22:27 48.57807 0.15656 28558 ft 439 kts 222°
2026-05-03 22:28 48.55543 0.12551 28854 ft 439 kts 220°
2026-05-03 22:28 48.53245 0.09533 29273 ft 437 kts 219°
2026-05-03 22:28 48.50938 0.06573 29772 ft 433 kts 219°
2026-05-03 22:28 48.48641 0.03657 30208 ft 431 kts 219°
2026-05-03 22:29 48.46379 0.00796 30521 ft 429 kts 219°
2026-05-03 22:29 48.44093 -0.02092 30780 ft 430 kts 219°
2026-05-03 22:29 48.41798 -0.04994 30969 ft 430 kts 219°
2026-05-03 22:29 48.39520 -0.07877 31314 ft 428 kts 219°
2026-05-03 22:30 48.37245 -0.10758 31615 ft 426 kts 219°
2026-05-03 22:30 48.34980 -0.13625 31872 ft 425 kts 219°
2026-05-03 22:30 48.32720 -0.16483 32112 ft 424 kts 219°
2026-05-03 22:30 48.30459 -0.19339 32365 ft 423 kts 219°
2026-05-03 22:31 48.28246 -0.22241 32583 ft 423 kts 222°
2026-05-03 22:31 48.26219 -0.25464 32821 ft 424 kts 228°
2026-05-03 22:31 48.24463 -0.29024 32946 ft 427 kts 234°
2026-05-03 22:32 48.21339 -0.36713 32960 ft 434 kts 236°
2026-05-03 22:32 48.18332 -0.44539 32965 ft 433 kts 236°
2026-05-03 22:33 48.15342 -0.52300 32967 ft 433 kts 236°
2026-05-03 22:33 48.12290 -0.60127 32964 ft 432 kts 236°
2026-05-03 22:34 48.09262 -0.67835 32965 ft 432 kts 236°
2026-05-03 22:34 48.06208 -0.75585 32965 ft 432 kts 236°
2026-05-03 22:35 48.03153 -0.83317 32965 ft 432 kts 236°
2026-05-03 22:35 48.00078 -0.91078 32962 ft 434 kts 236°
2026-05-03 22:36 47.96995 -0.98838 32963 ft 434 kts 236°
2026-05-03 22:36 47.93910 -1.06585 32963 ft 434 kts 236°
2026-05-03 22:37 47.90837 -1.14277 32963 ft 434 kts 236°
2026-05-03 22:37 47.87741 -1.22002 32963 ft 434 kts 236°
2026-05-03 22:38 47.84637 -1.29724 32970 ft 435 kts 236°
2026-05-03 22:38 47.81517 -1.37462 32963 ft 437 kts 236°
2026-05-03 22:39 47.78391 -1.45198 32955 ft 436 kts 235°
2026-05-03 22:39 47.75265 -1.52915 32964 ft 435 kts 235°
2026-05-03 22:40 47.72134 -1.60617 32962 ft 435 kts 235°
2026-05-03 22:40 47.69000 -1.68304 33000 ft 435 kts 235°
2026-05-03 22:41 47.65870 -1.75956 32967 ft 438 kts 235°
2026-05-03 22:41 47.62701 -1.83685 32967 ft 438 kts 235°
2026-05-03 22:42 47.59527 -1.91407 32964 ft 438 kts 235°
2026-05-03 22:42 47.56350 -1.99116 32957 ft 438 kts 235°
2026-05-03 22:43 47.53196 -2.06745 32965 ft 437 kts 235°
2026-05-03 22:43 47.50013 -2.14420 32975 ft 440 kts 235°
2026-05-03 22:44 47.46794 -2.22155 32953 ft 442 kts 235°
2026-05-03 22:44 47.43567 -2.29895 32975 ft 442 kts 235°
2026-05-03 22:45 47.40333 -2.37632 32976 ft 442 kts 235°
2026-05-03 22:45 47.37095 -2.45356 32953 ft 442 kts 235°
2026-05-03 22:46 47.33875 -2.53012 32961 ft 442 kts 235°
2026-05-03 22:46 47.30607 -2.60759 32960 ft 444 kts 235°
2026-05-03 22:47 47.27467 -2.68183 32961 ft 444 kts 234°
2026-05-03 22:47 47.24493 -2.75199 32963 ft 444 kts 234°
2026-05-03 22:48 47.21475 -2.82297 32965 ft 444 kts 234°
2026-05-03 22:48 47.18451 -2.89392 33000 ft 444 kts 235°
2026-05-03 22:49 47.15218 -2.97038 32964 ft 450 kts 237°
2026-05-03 22:49 47.12790 -3.05562 32964 ft 456 kts 248°
2026-05-03 22:50 47.10938 -3.14453 32966 ft 456 kts 249°
2026-05-03 22:50 47.09155 -3.23376 32969 ft 456 kts 249°
2026-05-03 22:51 47.07397 -3.32076 32976 ft 456 kts 250°
2026-05-03 22:51 47.05676 -3.40477 32970 ft 460 kts 249°
2026-05-03 22:52 47.03987 -3.48668 32973 ft 460 kts 249°
2026-05-03 22:52 47.02268 -3.56971 32966 ft 460 kts 249°
2026-05-03 22:53 47.00588 -3.65053 32976 ft 460 kts 249°
2026-05-03 22:53 46.99283 -3.71306 32987 ft 460 kts 250°
2026-05-03 22:54 46.97492 -3.79855 32972 ft 462 kts 249°
2026-05-03 22:54 46.95802 -3.87894 32979 ft 463 kts 249°
2026-05-03 22:55 46.93941 -3.96716 32972 ft 463 kts 249°
2026-05-03 22:55 46.92285 -4.04527 32972 ft 462 kts 249°
2026-05-03 22:56 46.90572 -4.12576 32984 ft 463 kts 250°
2026-05-03 22:56 46.88756 -4.21074 32970 ft 465 kts 250°
2026-05-03 22:57 46.86941 -4.29535 32976 ft 465 kts 250°
2026-05-03 22:57 46.85075 -4.38203 32977 ft 464 kts 250°
2026-05-03 22:58 46.83137 -4.47157 32979 ft 464 kts 250°
2026-05-03 22:58 46.81201 -4.56067 32977 ft 464 kts 250°
2026-05-03 22:59 46.79354 -4.64535 32977 ft 464 kts 250°
2026-05-03 22:59 46.77536 -4.72829 32980 ft 464 kts 249°
2026-05-03 23:00 46.75604 -4.81616 32980 ft 464 kts 249°
2026-05-03 23:00 46.73623 -4.90579 32987 ft 465 kts 250°
2026-05-03 23:01 46.71631 -4.99559 32981 ft 466 kts 250°
2026-05-03 23:01 46.69628 -5.08553 32979 ft 466 kts 249°
2026-05-03 23:02 46.67620 -5.17529 32980 ft 466 kts 249°
2026-05-03 23:02 46.65617 -5.26447 32980 ft 466 kts 249°
2026-05-03 23:03 46.63584 -5.35451 32977 ft 468 kts 249°
2026-05-03 23:03 46.61541 -5.44465 32981 ft 469 kts 249°
2026-05-03 23:04 46.59485 -5.53499 32985 ft 469 kts 249°
2026-05-03 23:04 46.57443 -5.62434 32984 ft 469 kts 249°
2026-05-03 23:05 46.55373 -5.71452 32990 ft 471 kts 249°
2026-05-03 23:05 46.53296 -5.80466 32987 ft 473 kts 249°
2026-05-03 23:06 46.51200 -5.89524 32988 ft 473 kts 249°
2026-05-03 23:06 46.49095 -5.98589 32988 ft 473 kts 249°
2026-05-03 23:07 46.46998 -6.07574 32988 ft 474 kts 250°
2026-05-03 23:07 46.44875 -6.16632 32984 ft 477 kts 250°
2026-05-03 23:08 46.42731 -6.25748 32984 ft 477 kts 249°
2026-05-03 23:08 46.40590 -6.34811 32985 ft 477 kts 249°
2026-05-03 23:09 46.38435 -6.43897 32995 ft 477 kts 250°
2026-05-03 23:09 46.36283 -6.52933 32987 ft 477 kts 250°
2026-05-03 23:10 46.34128 -6.61942 32988 ft 478 kts 250°
2026-05-03 23:10 46.31950 -6.71009 32987 ft 478 kts 249°
2026-05-03 23:11 46.29766 -6.80067 32991 ft 478 kts 249°
2026-05-03 23:11 46.27579 -6.89100 32991 ft 480 kts 250°
2026-05-03 23:12 46.25376 -6.98160 32990 ft 481 kts 250°
2026-05-03 23:12 46.23173 -7.07186 32990 ft 481 kts 250°
2026-05-03 23:13 46.20949 -7.16264 32994 ft 481 kts 250°
2026-05-03 23:13 46.18738 -7.25246 32993 ft 481 kts 250°
2026-05-03 23:14 46.16566 -7.34040 32991 ft 482 kts 250°
2026-05-03 23:14 46.14422 -7.42687 32990 ft 482 kts 250°
2026-05-03 23:15 46.12274 -7.51316 32993 ft 482 kts 250°
2026-05-03 23:15 46.10146 -7.59831 32995 ft 481 kts 250°
2026-05-03 23:16 46.07895 -7.68807 32996 ft 481 kts 250°
2026-05-03 23:16 46.05707 -7.77494 32998 ft 481 kts 250°
2026-05-03 23:17 46.03434 -7.86488 33000 ft 481 kts 250°
2026-05-03 23:17 46.01169 -7.95565 33034 ft 481 kts 253°
2026-05-03 23:17 46.00400 -8.00216 33354 ft 477 kts 261°
2026-05-03 23:18 46.00084 -8.04948 33698 ft 473 kts 267°
2026-05-03 23:18 45.99995 -8.09681 33908 ft 473 kts 269°
2026-05-03 23:18 45.99976 -8.14405 33986 ft 475 kts 269°
2026-05-03 23:19 46.00018 -8.23976 33994 ft 480 kts 270°
2026-05-03 23:19 46.00057 -8.33514 34001 ft 480 kts 270°
2026-05-03 23:20 46.00068 -8.43125 34003 ft 479 kts 269°
2026-05-03 23:20 46.00059 -8.52674 34002 ft 479 kts 269°
2026-05-03 23:21 46.00041 -8.62268 34002 ft 479 kts 269°
2026-05-03 23:21 46.00007 -8.71848 33996 ft 479 kts 268°
2026-05-03 23:22 45.98595 -8.86053 33998 ft 478 kts 259°
2026-05-03 23:22 45.97351 -8.95438 34004 ft 478 kts 259°
2026-05-03 23:23 45.96095 -9.04754 34004 ft 478 kts 259°
2026-05-03 23:23 45.94834 -9.14146 34005 ft 478 kts 259°
2026-05-03 23:24 45.93573 -9.23529 34003 ft 478 kts 259°
2026-05-03 23:24 45.92306 -9.32904 34004 ft 478 kts 259°
2026-05-03 23:25 45.91032 -9.42275 34007 ft 478 kts 259°
2026-05-03 23:25 45.89748 -9.51650 34013 ft 478 kts 259°
2026-05-03 23:26 45.88457 -9.61016 34008 ft 479 kts 259°
2026-05-03 23:26 45.87165 -9.70328 34011 ft 479 kts 259°
2026-05-03 23:27 45.85858 -9.79697 34014 ft 479 kts 259°
2026-05-03 23:27 45.84542 -9.89062 34007 ft 479 kts 259°
2026-05-03 23:28 45.83215 -9.98445 34017 ft 480 kts 259°
2026-05-03 23:28 45.81880 -10.07832 34018 ft 480 kts 259°
2026-05-03 23:29 45.80546 -10.17153 34021 ft 480 kts 259°
2026-05-03 23:29 45.79203 -10.26481 34017 ft 480 kts 259°
2026-05-03 23:30 45.77845 -10.35848 34021 ft 481 kts 259°
2026-05-03 23:30 45.76475 -10.45246 34029 ft 481 kts 259°
2026-05-03 23:31 45.75095 -10.54661 34029 ft 481 kts 259°
2026-05-03 23:31 45.73714 -10.64016 34028 ft 481 kts 259°
2026-05-03 23:32 45.72322 -10.73394 34032 ft 482 kts 259°
2026-05-03 23:32 45.70930 -10.82712 34032 ft 482 kts 259°
2026-05-03 23:33 45.69520 -10.92094 34034 ft 482 kts 259°
2026-05-03 23:33 45.68105 -11.01457 34035 ft 482 kts 259°
2026-05-03 23:34 45.66685 -11.10793 34037 ft 482 kts 260°
2026-05-03 23:34 45.65255 -11.20149 34041 ft 482 kts 260°
2026-05-03 23:35 45.63816 -11.29507 34042 ft 482 kts 259°
2026-05-03 23:35 45.62374 -11.38827 34049 ft 482 kts 259°
2026-05-03 23:36 45.60922 -11.48160 34049 ft 481 kts 260°
2026-05-03 23:36 45.59465 -11.57469 34054 ft 481 kts 260°
2026-05-03 23:37 45.58011 -11.66705 34053 ft 481 kts 260°
2026-05-03 23:37 45.56540 -11.75999 34055 ft 481 kts 260°
2026-05-03 23:38 45.55063 -11.85273 34061 ft 481 kts 260°
2026-05-03 23:38 45.53577 -11.94560 34060 ft 481 kts 260°
2026-05-03 23:39 45.52095 -12.03770 34062 ft 480 kts 260°
2026-05-03 23:39 45.50842 -12.11515 34068 ft 480 kts 260°
2026-05-03 23:40 45.49341 -12.20743 34063 ft 481 kts 260°
2026-05-03 23:40 45.47824 -12.30026 34070 ft 481 kts 259°
2026-05-03 23:41 45.46314 -12.39212 34078 ft 481 kts 259°
2026-05-03 23:41 45.44783 -12.48476 34077 ft 480 kts 259°
2026-05-03 23:42 45.43249 -12.57706 34075 ft 481 kts 260°
2026-05-03 23:42 45.41706 -12.66944 34082 ft 481 kts 260°
2026-05-03 23:43 45.40155 -12.76175 34083 ft 481 kts 259°
2026-05-03 23:43 45.38621 -12.85260 34086 ft 481 kts 259°
2026-05-03 23:44 45.37055 -12.94486 34092 ft 482 kts 260°
2026-05-03 23:44 45.35511 -13.03534 34089 ft 482 kts 260°
2026-05-03 23:45 45.33924 -13.12786 34091 ft 482 kts 259°
2026-05-03 23:45 45.32340 -13.21973 34100 ft 482 kts 259°
2026-05-03 23:46 45.30734 -13.31237 34099 ft 482 kts 260°
2026-05-03 23:46 45.29123 -13.40486 34107 ft 483 kts 260°
2026-05-03 23:47 45.27498 -13.49763 34105 ft 483 kts 260°
2026-05-03 23:47 45.25870 -13.59010 34110 ft 483 kts 260°
2026-05-03 23:48 45.24232 -13.68259 34113 ft 483 kts 260°
2026-05-03 23:48 45.22598 -13.77451 34113 ft 484 kts 260°
2026-05-03 23:49 45.20941 -13.86723 34121 ft 484 kts 260°
2026-05-03 23:49 45.19280 -13.95966 34121 ft 484 kts 260°
2026-05-03 23:50 45.17613 -14.05193 34127 ft 484 kts 260°
2026-05-03 23:50 45.15951 -14.14350 34127 ft 484 kts 260°
2026-05-03 23:51 45.14265 -14.23589 34127 ft 484 kts 260°
2026-05-03 23:51 45.12578 -14.32788 34132 ft 484 kts 260°
2026-05-03 23:52 45.10878 -14.42012 34140 ft 484 kts 260°
2026-05-03 23:52 45.09170 -14.51241 34141 ft 484 kts 260°
2026-05-03 23:53 45.07473 -14.60360 34143 ft 484 kts 260°
2026-05-03 23:53 45.05757 -14.69538 34140 ft 484 kts 260°
2026-05-03 23:54 45.04031 -14.78721 34135 ft 484 kts 261°
2026-05-03 23:54 45.02298 -14.87902 34154 ft 484 kts 260°
2026-05-03 23:55 45.00554 -14.97000 34149 ft 485 kts 258°
2026-05-03 23:55 44.97874 -15.05858 34143 ft 493 kts 249°
2026-05-03 23:56 44.94755 -15.14463 34156 ft 494 kts 248°
2026-05-03 23:56 44.91573 -15.23026 34158 ft 495 kts 248°
2026-05-03 23:57 44.88388 -15.31601 34166 ft 495 kts 248°
2026-05-03 23:57 44.85211 -15.40173 34130 ft 494 kts 249°
2026-05-03 23:58 44.82052 -15.48682 34168 ft 495 kts 249°
2026-05-03 23:58 44.78863 -15.57248 34166 ft 495 kts 249°
2026-05-03 23:59 44.75666 -15.65806 34173 ft 495 kts 248°
2026-05-03 23:59 44.72469 -15.74336 34169 ft 495 kts 248°
2026-05-04 00:00 44.69289 -15.82795 34177 ft 495 kts 248°
2026-05-04 00:00 44.66151 -15.91118 34184 ft 495 kts 248°
2026-05-04 00:01 44.63192 -15.98945 34181 ft 495 kts 248°
2026-05-04 00:01 44.60131 -16.07015 34187 ft 496 kts 249°
2026-05-04 00:02 44.56885 -16.15549 34183 ft 496 kts 248°
2026-05-04 00:02 44.53646 -16.24038 34190 ft 496 kts 248°
2026-05-04 00:03 44.50388 -16.32550 34194 ft 496 kts 248°
2026-05-04 00:03 44.47121 -16.41058 34188 ft 495 kts 248°
2026-05-04 00:04 44.43849 -16.49553 34195 ft 495 kts 248°
2026-05-04 00:04 44.40580 -16.58018 34197 ft 495 kts 248°
2026-05-04 00:05 44.37300 -16.66484 34196 ft 495 kts 248°
2026-05-04 00:05 44.34016 -16.74934 34200 ft 494 kts 248°
2026-05-04 00:06 44.30749 -16.83318 34206 ft 494 kts 248°
2026-05-04 00:06 44.27451 -16.91754 34205 ft 495 kts 248°
2026-05-04 00:07 44.24143 -17.00192 34186 ft 494 kts 247°
2026-05-04 00:07 44.20857 -17.08547 34208 ft 494 kts 247°
2026-05-04 00:08 44.17551 -17.16926 34208 ft 493 kts 247°
2026-05-04 00:08 44.14235 -17.25310 34213 ft 493 kts 247°
2026-05-04 00:09 44.10912 -17.33684 34204 ft 494 kts 247°
2026-05-04 00:09 44.07607 -17.41989 34217 ft 494 kts 247°
2026-05-04 00:10 44.04275 -17.50336 34220 ft 494 kts 247°
2026-05-04 00:10 44.00932 -17.58688 34220 ft 494 kts 247°
2026-05-04 00:11 43.97584 -17.67027 34221 ft 494 kts 247°
2026-05-04 00:11 43.94221 -17.75379 34224 ft 495 kts 247°
2026-05-04 00:12 43.90856 -17.83709 34225 ft 495 kts 247°
2026-05-04 00:12 43.87507 -17.91978 34196 ft 495 kts 247°
2026-05-04 00:13 43.84127 -18.00298 34230 ft 495 kts 247°
2026-05-04 00:13 43.80741 -18.08610 34232 ft 495 kts 247°
2026-05-04 00:14 43.77352 -18.16903 34235 ft 495 kts 247°
2026-05-04 00:14 43.73969 -18.25158 34224 ft 495 kts 246°
2026-05-04 00:15 43.70568 -18.33432 34238 ft 494 kts 246°
2026-05-04 00:15 43.67169 -18.41679 34238 ft 494 kts 246°
2026-05-04 00:16 43.63755 -18.49941 34238 ft 495 kts 246°
2026-05-04 00:16 43.60355 -18.58144 34252 ft 495 kts 246°
2026-05-04 00:17 43.56929 -18.66383 34232 ft 494 kts 246°
2026-05-04 00:17 43.53498 -18.74612 34235 ft 494 kts 246°
2026-05-04 00:18 43.50063 -18.82828 34237 ft 494 kts 246°
2026-05-04 00:18 43.46640 -18.90990 34239 ft 495 kts 246°
2026-05-04 00:19 43.43193 -18.99188 34244 ft 495 kts 246°
2026-05-04 00:19 43.39744 -19.07367 34249 ft 495 kts 246°
2026-05-04 00:20 43.36285 -19.15548 34239 ft 495 kts 246°
2026-05-04 00:20 43.32817 -19.23729 34251 ft 496 kts 246°
2026-05-04 00:21 43.29340 -19.31904 34250 ft 496 kts 246°
2026-05-04 00:21 43.25855 -19.40074 34250 ft 496 kts 246°
2026-05-04 00:22 43.22396 -19.48163 34242 ft 495 kts 245°
2026-05-04 00:22 43.18899 -19.56317 34257 ft 495 kts 245°
2026-05-04 00:23 43.15398 -19.64458 34257 ft 495 kts 245°
2026-05-04 00:23 43.11889 -19.72594 34258 ft 495 kts 245°
2026-05-04 00:24 43.08380 -19.80708 34233 ft 496 kts 245°
2026-05-04 00:24 43.04860 -19.88826 34260 ft 496 kts 245°
2026-05-04 00:25 43.01329 -19.96925 34261 ft 497 kts 244°
2026-05-04 00:25 42.97052 -20.04400 34262 ft 505 kts 234°
2026-05-04 00:26 42.92321 -20.11510 34265 ft 507 kts 233°
2026-05-04 00:26 42.87521 -20.18554 34264 ft 506 kts 232°
2026-05-04 00:27 42.82734 -20.25579 34265 ft 505 kts 232°
2026-05-04 00:27 42.77989 -20.32561 34265 ft 505 kts 232°
2026-05-04 00:28 42.73206 -20.39594 34271 ft 506 kts 232°
2026-05-04 00:28 42.68417 -20.46617 34270 ft 506 kts 232°
2026-05-04 00:29 42.64430 -20.52451 34271 ft 506 kts 232°
2026-05-04 00:29 42.59638 -20.59443 34273 ft 505 kts 232°
2026-05-04 00:30 42.54848 -20.66417 34275 ft 505 kts 232°
2026-05-04 00:30 42.50047 -20.73392 34283 ft 505 kts 232°
2026-05-04 00:31 42.45268 -20.80318 34267 ft 506 kts 232°
2026-05-04 00:31 42.40459 -20.87270 34275 ft 505 kts 231°
2026-05-04 00:32 42.35657 -20.94194 34279 ft 504 kts 231°
2026-05-04 00:32 42.30854 -21.01104 34282 ft 504 kts 231°
2026-05-04 00:33 42.23632 -21.11463 34267 ft 504 kts 231°
2026-05-04 00:34 42.18823 -21.18342 34282 ft 504 kts 231°
2026-05-04 00:34 42.14006 -21.25212 34283 ft 503 kts 231°
2026-05-04 00:35 42.09221 -21.32022 34287 ft 503 kts 231°
2026-05-04 00:35 42.04409 -21.38855 34285 ft 503 kts 231°
2026-05-04 00:36 41.99588 -21.45686 34290 ft 503 kts 230°
2026-05-04 00:36 41.94767 -21.52500 34284 ft 502 kts 230°
2026-05-04 00:37 41.89964 -21.59271 34296 ft 502 kts 230°
2026-05-04 00:37 41.85143 -21.66053 34293 ft 502 kts 230°
2026-05-04 00:38 41.80346 -21.72785 34289 ft 502 kts 230°
2026-05-04 00:38 41.75515 -21.79550 34295 ft 502 kts 230°
2026-05-04 00:39 41.70683 -21.86301 34303 ft 501 kts 229°
2026-05-04 00:39 41.65881 -21.92993 34292 ft 501 kts 229°
2026-05-04 00:40 41.61042 -21.99722 34276 ft 501 kts 229°
2026-05-04 00:40 41.56200 -22.06439 34298 ft 501 kts 229°
2026-05-04 00:41 41.51353 -22.13148 34284 ft 501 kts 229°
2026-05-04 00:41 41.46537 -22.19797 34282 ft 501 kts 229°
2026-05-04 00:42 41.41680 -22.26489 34293 ft 501 kts 229°
2026-05-04 00:42 41.36822 -22.33169 34300 ft 501 kts 229°
2026-05-04 00:43 41.31966 -22.39828 34300 ft 502 kts 229°
2026-05-04 00:43 41.27128 -22.46448 34291 ft 501 kts 228°
2026-05-04 00:44 41.22256 -22.53100 34302 ft 500 kts 228°
2026-05-04 00:44 41.17396 -22.59719 34303 ft 500 kts 228°
2026-05-04 00:45 41.12537 -22.66323 34302 ft 500 kts 228°
2026-05-04 00:45 41.07672 -22.72921 34306 ft 500 kts 228°
2026-05-04 00:46 41.02839 -22.79459 34295 ft 500 kts 227°
2026-05-04 00:46 40.97973 -22.86028 34306 ft 499 kts 227°
2026-05-04 00:47 40.93103 -22.92588 34307 ft 498 kts 227°
2026-05-04 00:47 40.88244 -22.99117 34308 ft 498 kts 227°
2026-05-04 00:48 40.83370 -23.05654 34308 ft 498 kts 227°
2026-05-04 00:48 40.78526 -23.12135 34311 ft 498 kts 227°
2026-05-04 00:49 40.73651 -23.18645 34310 ft 498 kts 227°
2026-05-04 00:49 40.68776 -23.25137 34316 ft 498 kts 227°
2026-05-04 00:50 40.63903 -23.31613 34313 ft 498 kts 226°
2026-05-04 00:50 40.59023 -23.38085 34318 ft 498 kts 226°
2026-05-04 00:51 40.54145 -23.44542 34306 ft 498 kts 226°
2026-05-04 00:51 40.49249 -23.51007 34317 ft 498 kts 226°
2026-05-04 00:52 40.44416 -23.57373 34317 ft 498 kts 226°
2026-05-04 00:52 40.39526 -23.63802 34320 ft 498 kts 226°
2026-05-04 00:53 40.34627 -23.70228 34317 ft 498 kts 226°
2026-05-04 00:53 40.29734 -23.76632 34319 ft 498 kts 226°
2026-05-04 00:54 40.24837 -23.83029 34320 ft 496 kts 225°
2026-05-04 00:54 40.19970 -23.89372 34320 ft 496 kts 225°
2026-05-04 00:55 40.15071 -23.95742 34320 ft 496 kts 225°
2026-05-04 00:55 40.10166 -24.02107 34319 ft 496 kts 226°
2026-05-04 00:56 40.05273 -24.08444 34315 ft 495 kts 225°
2026-05-04 00:56 40.00370 -24.14779 34318 ft 495 kts 225°
2026-05-04 00:57 39.95478 -24.21087 34319 ft 494 kts 225°
2026-05-04 00:57 39.90606 -24.27355 34322 ft 494 kts 225°
2026-05-04 00:58 39.85696 -24.33659 34319 ft 494 kts 225°
2026-05-04 00:58 39.80797 -24.39936 34319 ft 494 kts 224°
2026-05-04 00:59 39.75901 -24.46195 34319 ft 492 kts 224°
2026-05-04 00:59 39.71017 -24.52425 34319 ft 492 kts 224°
2026-05-04 01:00 39.66160 -24.58609 34321 ft 492 kts 224°
2026-05-04 01:00 39.61258 -24.64837 34322 ft 493 kts 224°
2026-05-04 01:01 39.56351 -24.71058 34319 ft 493 kts 224°
2026-05-04 01:01 39.51450 -24.77259 34320 ft 492 kts 224°
2026-05-04 01:02 39.46569 -24.83421 34320 ft 491 kts 224°
2026-05-04 01:02 39.41666 -24.89598 34319 ft 491 kts 224°
2026-05-04 01:03 39.36772 -24.95752 34319 ft 491 kts 224°
2026-05-04 01:03 39.31900 -25.01865 34319 ft 491 kts 224°
2026-05-04 01:04 39.27008 -25.07991 34319 ft 490 kts 224°
2026-05-04 01:04 39.22105 -25.14117 34319 ft 490 kts 224°
2026-05-04 01:05 39.17199 -25.20235 34316 ft 490 kts 224°
2026-05-04 01:05 39.13120 -25.25313 34316 ft 489 kts 224°
2026-05-04 01:06 39.07418 -25.32395 34314 ft 489 kts 224°
2026-05-04 01:06 39.02522 -25.38464 34314 ft 489 kts 224°
2026-05-04 01:07 38.97608 -25.44542 34317 ft 489 kts 224°
2026-05-04 01:07 38.92729 -25.50564 34311 ft 489 kts 224°
2026-05-04 01:08 38.87819 -25.56614 34316 ft 489 kts 224°
2026-05-04 01:08 38.82906 -25.62654 34311 ft 488 kts 223°
2026-05-04 01:09 38.78177 -25.68456 34309 ft 487 kts 224°
2026-05-04 01:09 38.73288 -25.74444 34306 ft 485 kts 224°
2026-05-04 01:10 38.68399 -25.80419 34306 ft 485 kts 223°
2026-05-04 01:10 38.63511 -25.86381 34305 ft 485 kts 223°
2026-05-04 01:11 38.58646 -25.92304 34306 ft 485 kts 223°
2026-05-04 01:11 38.53746 -25.98255 34304 ft 483 kts 224°
2026-05-04 01:12 38.48877 -26.04159 34300 ft 481 kts 224°
2026-05-04 01:12 38.44043 -26.10010 34299 ft 481 kts 224°
2026-05-04 01:13 38.39178 -26.15887 34302 ft 481 kts 224°
2026-05-04 01:13 38.34316 -26.21749 34295 ft 481 kts 224°
2026-05-04 01:14 38.29433 -26.27623 34295 ft 481 kts 225°
2026-05-04 01:14 38.24574 -26.33458 34291 ft 479 kts 225°
2026-05-04 01:15 38.19724 -26.39270 34292 ft 478 kts 225°
2026-05-04 01:15 38.15699 -26.44086 34292 ft 478 kts 225°
2026-05-04 01:16 38.10065 -26.50814 34292 ft 478 kts 225°
2026-05-04 01:16 38.05212 -26.56597 34292 ft 478 kts 225°
2026-05-04 01:17 38.01176 -26.61396 34287 ft 477 kts 226°
2026-05-04 01:17 37.96332 -26.67148 34279 ft 476 kts 226°
2026-05-04 01:18 37.91505 -26.72869 34286 ft 474 kts 226°
2026-05-04 01:18 37.86719 -26.78532 34278 ft 473 kts 226°
2026-05-04 01:19 37.81907 -26.84215 34283 ft 473 kts 226°
2026-05-04 01:19 37.77087 -26.89896 34281 ft 473 kts 226°
2026-05-04 01:20 37.72267 -26.95567 34280 ft 473 kts 226°
2026-05-04 01:20 37.67447 -27.01226 34277 ft 473 kts 226°
2026-05-04 01:21 37.62624 -27.06879 34274 ft 472 kts 226°
2026-05-04 01:21 37.57809 -27.12512 34271 ft 472 kts 226°
2026-05-04 01:22 37.52993 -27.18136 34266 ft 472 kts 226°
2026-05-04 01:22 37.48172 -27.23755 34274 ft 472 kts 226°
2026-05-04 01:23 37.43354 -27.29360 34268 ft 472 kts 226°
2026-05-04 01:23 37.38528 -27.34964 34268 ft 472 kts 226°
2026-05-04 01:24 37.33727 -27.40529 34270 ft 472 kts 226°
2026-05-04 01:24 37.28893 -27.46123 34262 ft 472 kts 226°
2026-05-04 01:25 37.24058 -27.51707 34265 ft 471 kts 226°
2026-05-04 01:25 37.19261 -27.57237 34265 ft 471 kts 226°
2026-05-04 01:26 37.14434 -27.62792 34254 ft 471 kts 225°
2026-05-04 01:26 37.09590 -27.68356 34253 ft 471 kts 225°
2026-05-04 01:27 37.04753 -27.73902 34252 ft 471 kts 225°
2026-05-04 01:27 36.99926 -27.79427 34248 ft 470 kts 225°
2026-05-04 01:28 36.95132 -27.84904 34249 ft 470 kts 225°
2026-05-04 01:28 36.90290 -27.90426 34244 ft 470 kts 225°
2026-05-04 01:29 36.85463 -27.95922 34245 ft 470 kts 225°
2026-05-04 01:29 36.80623 -28.01421 34242 ft 470 kts 225°
2026-05-04 01:30 36.75787 -28.06906 34231 ft 470 kts 225°
2026-05-04 01:30 36.70972 -28.12360 34239 ft 471 kts 225°
2026-05-04 01:31 36.66122 -28.17842 34237 ft 471 kts 225°
2026-05-04 01:31 36.61261 -28.23325 34235 ft 471 kts 224°
2026-05-04 01:32 36.56391 -28.28810 34231 ft 471 kts 224°
2026-05-04 01:32 36.51552 -28.34251 34227 ft 471 kts 224°
2026-05-04 01:33 36.46681 -28.39718 34229 ft 471 kts 224°
2026-05-04 01:33 36.41807 -28.45179 34223 ft 472 kts 224°
2026-05-04 01:34 36.36915 -28.50650 34219 ft 473 kts 224°
2026-05-04 01:34 36.32027 -28.56107 34217 ft 473 kts 224°
2026-05-04 01:35 36.27129 -28.61564 34214 ft 473 kts 224°
2026-05-04 01:35 36.22264 -28.66976 34207 ft 473 kts 224°
2026-05-04 01:36 36.17347 -28.72437 34207 ft 474 kts 224°
2026-05-04 01:36 36.12421 -28.77898 34202 ft 475 kts 224°
2026-05-04 01:37 36.07522 -28.83318 34203 ft 475 kts 224°
2026-05-04 01:37 36.02593 -28.88764 34204 ft 475 kts 224°
2026-05-04 01:38 35.97656 -28.94208 34200 ft 476 kts 224°
2026-05-04 01:38 35.92723 -28.99638 34194 ft 476 kts 224°
2026-05-04 01:39 35.87780 -29.05072 34199 ft 476 kts 224°
2026-05-04 01:39 35.82828 -29.10505 34184 ft 476 kts 224°
2026-05-04 01:40 35.77913 -29.15884 34186 ft 475 kts 223°
2026-05-04 01:40 35.72968 -29.21292 34185 ft 476 kts 223°
2026-05-04 01:41 35.68006 -29.26709 34175 ft 476 kts 223°
2026-05-04 01:41 35.63023 -29.32137 34177 ft 478 kts 223°
2026-05-04 01:42 35.58036 -29.37557 34172 ft 478 kts 223°
2026-05-04 01:42 35.53073 -29.42946 34172 ft 478 kts 223°
2026-05-04 01:43 35.48059 -29.48379 34166 ft 481 kts 223°
2026-05-04 01:43 35.43028 -29.53823 34158 ft 482 kts 223°
2026-05-04 01:44 35.37988 -29.59268 34158 ft 484 kts 223°
2026-05-04 01:44 35.32960 -29.64688 34151 ft 484 kts 223°
2026-05-04 01:45 35.27899 -29.70135 34151 ft 484 kts 223°
2026-05-04 01:45 35.20298 -29.78300 34143 ft 484 kts 222°
2026-05-04 01:46 35.15226 -29.83735 34142 ft 484 kts 221°
2026-05-04 01:46 35.10186 -29.89125 34144 ft 484 kts 222°
2026-05-04 01:47 35.05116 -29.94539 34128 ft 484 kts 222°
2026-05-04 01:47 35.00009 -29.99856 34498 ft 480 kts 217°
2026-05-04 01:48 34.97325 -30.02263 34750 ft 478 kts 217°
2026-05-04 01:48 34.94627 -30.04621 34969 ft 476 kts 216°
2026-05-04 01:48 34.91919 -30.06952 35101 ft 477 kts 216°
2026-05-04 01:48 34.89193 -30.09282 35205 ft 478 kts 216°
2026-05-04 01:49 34.86467 -30.11603 35349 ft 478 kts 216°
2026-05-04 01:49 34.83737 -30.13926 35444 ft 479 kts 216°
2026-05-04 01:49 34.81004 -30.16252 35613 ft 478 kts 216°
2026-05-04 01:49 34.78311 -30.18545 35738 ft 478 kts 216°
2026-05-04 01:50 34.75592 -30.20860 35901 ft 477 kts 216°
2026-05-04 01:50 34.72866 -30.23181 36020 ft 477 kts 216°
2026-05-04 01:50 34.67405 -30.27825 36106 ft 481 kts 216°
2026-05-04 01:51 34.61897 -30.32503 36098 ft 484 kts 215°
2026-05-04 01:51 34.56381 -30.37178 36098 ft 483 kts 215°
2026-05-04 01:52 34.50873 -30.41838 36097 ft 483 kts 215°
2026-05-04 01:52 34.45352 -30.46502 36097 ft 484 kts 215°
2026-05-04 01:53 34.39829 -30.51160 36093 ft 484 kts 215°
2026-05-04 01:53 34.34329 -30.55791 36081 ft 484 kts 215°
2026-05-04 01:54 34.28797 -30.60441 36076 ft 484 kts 215°
2026-05-04 01:54 34.23259 -30.65089 36077 ft 484 kts 215°
2026-05-04 01:55 34.17760 -30.69697 36079 ft 484 kts 215°
2026-05-04 01:55 34.12199 -30.74349 36064 ft 486 kts 215°
2026-05-04 01:56 34.06645 -30.78987 36065 ft 486 kts 215°
2026-05-04 01:56 34.01080 -30.83627 36062 ft 486 kts 215°
2026-05-04 01:57 33.95506 -30.88267 36051 ft 486 kts 215°
2026-05-04 01:57 33.89971 -30.92868 36055 ft 486 kts 215°
2026-05-04 01:58 33.84400 -30.97490 36051 ft 486 kts 214°
2026-05-04 01:58 33.78822 -31.02111 36045 ft 487 kts 215°
2026-05-04 01:59 33.73233 -31.06734 36046 ft 487 kts 215°
2026-05-04 01:59 33.67670 -31.11328 36045 ft 484 kts 215°
2026-05-04 02:00 33.62118 -31.15905 36047 ft 484 kts 214°
2026-05-04 02:00 33.56568 -31.20473 36037 ft 484 kts 215°
2026-05-04 02:01 33.51045 -31.25013 36037 ft 484 kts 214°
2026-05-04 02:01 33.45490 -31.29571 36033 ft 484 kts 214°
2026-05-04 02:02 33.39946 -31.34113 36025 ft 481 kts 214°
2026-05-04 02:02 33.34462 -31.38599 36028 ft 480 kts 214°
2026-05-04 02:03 33.28946 -31.43103 36020 ft 480 kts 214°
2026-05-04 02:03 33.23430 -31.47601 36019 ft 480 kts 214°
2026-05-04 02:04 33.17907 -31.52097 36019 ft 480 kts 214°
2026-05-04 02:04 33.12380 -31.56592 36014 ft 481 kts 214°
2026-05-04 02:05 33.06849 -31.61080 36011 ft 480 kts 214°
2026-05-04 02:05 33.01350 -31.65536 36009 ft 480 kts 214°
2026-05-04 02:06 32.95812 -31.70017 36003 ft 480 kts 214°
2026-05-04 02:06 32.91218 -31.73729 36005 ft 480 kts 214°
2026-05-04 02:07 32.84775 -31.78927 35994 ft 480 kts 214°
2026-05-04 02:07 32.80138 -31.82661 35996 ft 482 kts 214°
2026-05-04 02:08 32.74560 -31.87149 35993 ft 484 kts 214°
2026-05-04 02:08 32.69005 -31.91610 36001 ft 485 kts 214°
2026-05-04 02:09 32.63424 -31.96086 36001 ft 484 kts 214°
2026-05-04 02:09 32.57830 -32.00565 36001 ft 484 kts 214°
2026-05-04 02:10 32.52275 -32.05006 35998 ft 485 kts 214°
2026-05-04 02:10 32.46684 -32.09469 35992 ft 486 kts 214°
2026-05-04 02:11 32.41050 -32.13960 35992 ft 488 kts 214°
2026-05-04 02:11 32.35404 -32.18452 35987 ft 488 kts 214°
2026-05-04 02:12 32.29796 -32.22909 35990 ft 488 kts 214°
2026-05-04 02:12 32.24151 -32.27387 35989 ft 488 kts 214°
2026-05-04 02:13 32.18515 -32.31851 35984 ft 488 kts 214°
2026-05-04 02:13 32.12861 -32.36323 35983 ft 488 kts 214°
2026-05-04 02:14 32.07205 -32.40791 35983 ft 490 kts 214°
2026-05-04 02:14 32.01534 -32.45263 35980 ft 490 kts 214°
2026-05-04 02:15 31.95867 -32.49725 35984 ft 490 kts 214°
2026-05-04 02:15 31.90228 -32.54158 35987 ft 490 kts 214°
2026-05-04 02:16 31.84556 -32.58611 35984 ft 490 kts 214°
2026-05-04 02:16 31.78865 -32.63072 35984 ft 490 kts 214°
2026-05-04 02:17 31.73189 -32.67515 35985 ft 490 kts 214°
2026-05-04 02:17 31.67509 -32.71954 35984 ft 491 kts 214°
2026-05-04 02:18 31.61818 -32.76394 35975 ft 491 kts 214°
2026-05-04 02:18 31.56161 -32.80802 35973 ft 491 kts 214°
2026-05-04 02:19 31.50467 -32.85233 35978 ft 491 kts 214°
2026-05-04 02:19 31.44771 -32.89658 35975 ft 491 kts 214°
2026-05-04 02:20 31.39065 -32.94083 35975 ft 491 kts 214°
2026-05-04 02:20 31.33357 -32.98505 35975 ft 491 kts 214°
2026-05-04 02:21 31.27652 -33.02917 35979 ft 491 kts 214°
2026-05-04 02:21 31.21983 -33.07295 35979 ft 491 kts 214°
2026-05-04 02:22 31.16278 -33.11695 35973 ft 491 kts 214°
2026-05-04 02:22 31.10573 -33.16088 35969 ft 491 kts 214°
2026-05-04 02:23 31.04848 -33.20489 35977 ft 491 kts 214°
2026-05-04 02:23 30.99134 -33.24877 35976 ft 491 kts 214°
2026-05-04 02:24 30.93431 -33.29249 35980 ft 491 kts 214°
2026-05-04 02:24 30.87724 -33.33618 35979 ft 491 kts 214°
2026-05-04 02:25 30.82022 -33.37977 35981 ft 491 kts 214°
2026-05-04 02:25 30.76312 -33.42335 35977 ft 491 kts 214°
2026-05-04 02:26 30.70607 -33.46683 35979 ft 491 kts 214°
2026-05-04 02:26 30.64919 -33.51013 35982 ft 491 kts 214°
2026-05-04 02:27 30.59205 -33.55357 35979 ft 491 kts 214°
2026-05-04 02:27 30.53481 -33.59701 35980 ft 491 kts 214°
2026-05-04 02:28 30.47756 -33.64040 35982 ft 491 kts 214°
2026-05-04 02:28 30.42066 -33.68345 35983 ft 491 kts 214°
2026-05-04 02:29 30.36341 -33.72672 35983 ft 493 kts 215°
2026-05-04 02:29 30.30591 -33.77012 35981 ft 494 kts 215°
2026-05-04 02:30 30.24823 -33.81359 35984 ft 494 kts 215°
2026-05-04 02:30 30.19055 -33.85700 35985 ft 494 kts 215°
2026-05-04 02:31 30.13330 -33.90001 35984 ft 494 kts 216°
2026-05-04 02:31 30.07553 -33.94336 35986 ft 494 kts 216°
2026-05-04 02:32 30.01785 -33.98675 35983 ft 494 kts 217°
2026-05-04 02:32 29.96543 -34.03669 35985 ft 491 kts 224°
2026-05-04 02:33 29.91504 -34.08985 35986 ft 490 kts 225°
2026-05-04 02:33 29.86501 -34.14347 35986 ft 490 kts 225°
2026-05-04 02:34 29.81496 -34.19692 35984 ft 490 kts 226°
2026-05-04 02:34 29.76478 -34.25026 35987 ft 492 kts 227°
2026-05-04 02:35 29.71459 -34.30346 35984 ft 493 kts 227°
2026-05-04 02:35 29.66403 -34.35693 35987 ft 494 kts 227°
2026-05-04 02:36 29.61337 -34.41044 35989 ft 493 kts 227°
2026-05-04 02:36 29.56277 -34.46384 35992 ft 493 kts 227°
2026-05-04 02:37 29.51242 -34.51689 35997 ft 495 kts 228°
2026-05-04 02:37 29.46154 -34.57043 35990 ft 496 kts 229°
2026-05-04 02:38 29.41065 -34.62389 35994 ft 496 kts 229°
2026-05-04 02:38 29.35961 -34.67743 35994 ft 496 kts 229°
2026-05-04 02:39 29.30859 -34.73089 35991 ft 496 kts 229°
2026-05-04 02:39 29.25789 -34.78395 35998 ft 497 kts 229°
2026-05-04 02:40 29.20674 -34.83739 36001 ft 498 kts 229°
2026-05-04 02:40 29.15553 -34.89080 35999 ft 498 kts 229°
2026-05-04 02:41 29.10420 -34.94425 35998 ft 497 kts 230°
2026-05-04 02:41 29.05317 -34.99733 35975 ft 496 kts 230°
2026-05-04 02:42 29.00203 -35.05048 36004 ft 497 kts 230°
2026-05-04 02:42 28.95108 -35.10335 36004 ft 497 kts 230°
2026-05-04 02:43 28.89988 -35.15640 36001 ft 497 kts 230°
2026-05-04 02:43 28.84858 -35.20946 36004 ft 497 kts 230°
2026-05-04 02:44 28.79738 -35.26235 35962 ft 497 kts 230°
2026-05-04 02:44 28.74644 -35.31491 36006 ft 496 kts 230°
2026-05-04 02:45 28.69525 -35.36765 36011 ft 496 kts 230°
2026-05-04 02:45 28.64403 -35.42035 36014 ft 496 kts 230°
2026-05-04 02:46 28.59308 -35.47270 36015 ft 496 kts 230°
2026-05-04 02:46 28.54180 -35.52532 36008 ft 496 kts 230°
2026-05-04 02:47 28.49043 -35.57797 36014 ft 497 kts 230°
2026-05-04 02:47 28.43908 -35.63051 35996 ft 496 kts 230°
2026-05-04 02:48 28.38768 -35.68301 36017 ft 495 kts 230°
2026-05-04 02:48 28.33674 -35.73500 36018 ft 495 kts 230°
2026-05-04 02:49 28.28544 -35.78729 36013 ft 496 kts 230°
2026-05-04 02:49 28.23403 -35.83962 36032 ft 497 kts 230°
2026-05-04 02:50 28.18254 -35.89195 36020 ft 497 kts 230°
2026-05-04 02:50 28.13103 -35.94423 36018 ft 497 kts 230°
2026-05-04 02:51 28.07955 -35.99641 36022 ft 497 kts 230°
2026-05-04 02:51 28.02798 -36.04861 36020 ft 497 kts 230°
2026-05-04 02:52 27.97660 -36.10055 36030 ft 498 kts 230°
2026-05-04 02:52 27.92490 -36.15275 36030 ft 498 kts 230°
2026-05-04 02:53 27.87320 -36.20486 36033 ft 498 kts 230°
2026-05-04 02:53 27.82149 -36.25692 36024 ft 498 kts 230°
2026-05-04 02:54 27.77848 -36.30018 36030 ft 498 kts 230°
2026-05-04 02:54 27.72667 -36.35222 36030 ft 497 kts 230°
2026-05-04 02:55 27.64916 -36.42992 36031 ft 496 kts 230°
2026-05-04 02:56 27.59745 -36.48170 36035 ft 496 kts 230°
2026-05-04 02:56 27.54604 -36.53310 36034 ft 496 kts 230°
2026-05-04 02:57 27.49431 -36.58476 36037 ft 496 kts 230°
2026-05-04 02:57 27.44252 -36.63640 36037 ft 496 kts 230°
2026-05-04 02:58 27.39080 -36.68791 36038 ft 496 kts 230°
2026-05-04 02:58 27.33948 -36.73893 36043 ft 495 kts 230°
2026-05-04 02:59 27.28786 -36.79021 36039 ft 495 kts 229°
2026-05-04 02:59 27.23619 -36.84148 36041 ft 495 kts 229°
2026-05-04 03:00 27.18448 -36.89271 36047 ft 495 kts 229°
2026-05-04 03:00 27.13313 -36.94352 36052 ft 495 kts 229°
2026-05-04 03:01 27.08146 -36.99458 36024 ft 495 kts 229°
2026-05-04 03:01 27.02966 -37.04572 36050 ft 495 kts 229°
2026-05-04 03:02 26.97789 -37.09674 36050 ft 495 kts 229°
2026-05-04 03:02 26.92607 -37.14775 36053 ft 495 kts 229°
2026-05-04 03:03 26.87459 -37.19837 36053 ft 495 kts 229°
2026-05-04 03:03 26.82271 -37.24930 36044 ft 495 kts 229°
2026-05-04 03:04 26.77079 -37.30023 36059 ft 496 kts 229°
2026-05-04 03:04 26.71874 -37.35121 36037 ft 496 kts 229°
2026-05-04 03:05 26.66716 -37.40166 36059 ft 495 kts 229°
2026-05-04 03:05 26.61525 -37.45237 36061 ft 495 kts 229°
2026-05-04 03:06 26.56332 -37.50304 36066 ft 496 kts 229°
2026-05-04 03:06 26.51118 -37.55388 36060 ft 497 kts 229°
2026-05-04 03:07 26.45905 -37.60461 36067 ft 497 kts 229°
2026-05-04 03:07 26.40678 -37.65541 36067 ft 497 kts 229°
2026-05-04 03:08 26.35456 -37.70611 36060 ft 497 kts 228°
2026-05-04 03:08 26.30262 -37.75648 36067 ft 498 kts 228°
2026-05-04 03:09 26.25027 -37.80720 36070 ft 499 kts 228°
2026-05-04 03:09 26.19785 -37.85788 36072 ft 499 kts 228°
2026-05-04 03:10 26.14538 -37.90857 36068 ft 499 kts 228°
2026-05-04 03:10 26.09326 -37.95886 36049 ft 499 kts 228°
2026-05-04 03:11 26.04071 -38.00953 36076 ft 500 kts 228°
2026-05-04 03:11 25.98798 -38.06028 36075 ft 499 kts 227°
2026-05-04 03:12 25.93547 -38.11073 36073 ft 499 kts 227°
2026-05-04 03:12 25.88323 -38.16089 36069 ft 499 kts 227°
2026-05-04 03:13 25.83067 -38.21131 36068 ft 499 kts 227°
2026-05-04 03:13 25.77802 -38.26175 36081 ft 500 kts 227°
2026-05-04 03:14 25.72531 -38.31217 36081 ft 500 kts 227°
2026-05-04 03:14 25.67259 -38.36255 36064 ft 500 kts 226°
2026-05-04 03:15 25.62031 -38.41242 36083 ft 497 kts 226°
2026-05-04 03:15 25.56788 -38.46240 36091 ft 497 kts 226°
2026-05-04 03:16 25.51527 -38.51250 36068 ft 498 kts 226°
2026-05-04 03:16 25.46273 -38.56246 36088 ft 498 kts 226°
2026-05-04 03:17 25.41012 -38.61243 36088 ft 498 kts 226°
2026-05-04 03:17 25.35783 -38.66204 36074 ft 498 kts 226°
2026-05-04 03:18 25.30527 -38.71183 36083 ft 495 kts 226°
2026-05-04 03:18 25.25300 -38.76129 36086 ft 494 kts 226°
2026-05-04 03:19 25.20085 -38.81059 36085 ft 494 kts 225°
2026-05-04 03:19 25.14888 -38.85967 36086 ft 494 kts 225°
2026-05-04 03:20 25.09648 -38.90910 36083 ft 494 kts 225°
2026-05-04 03:20 25.04427 -38.95828 36086 ft 494 kts 225°
2026-05-04 03:21 24.99199 -39.00745 36082 ft 494 kts 225°
2026-05-04 03:21 24.93782 -39.05419 36086 ft 493 kts 222°
2026-05-04 03:22 24.88298 -39.09890 36087 ft 493 kts 221°
2026-05-04 03:22 24.82800 -39.14412 36080 ft 492 kts 222°
2026-05-04 03:23 24.77348 -39.18948 36089 ft 491 kts 222°
2026-05-04 03:23 24.71899 -39.23500 36089 ft 491 kts 222°
2026-05-04 03:24 24.66450 -39.28047 36086 ft 491 kts 222°
2026-05-04 03:24 24.61004 -39.32585 36092 ft 491 kts 222°
2026-05-04 03:25 24.55590 -39.37089 36087 ft 491 kts 222°
2026-05-04 03:25 24.50147 -39.41611 36090 ft 490 kts 222°
2026-05-04 03:26 24.44706 -39.46128 36089 ft 490 kts 222°
2026-05-04 03:26 24.39262 -39.50642 36095 ft 490 kts 222°
2026-05-04 03:27 24.33820 -39.55149 36084 ft 490 kts 222°
2026-05-04 03:27 24.28385 -39.59645 36090 ft 488 kts 221°
2026-05-04 03:28 24.23003 -39.64092 36091 ft 487 kts 221°
2026-05-04 03:28 24.17596 -39.68556 36100 ft 487 kts 221°
2026-05-04 03:29 24.12181 -39.73023 36087 ft 487 kts 221°
2026-05-04 03:29 24.06771 -39.77479 36109 ft 487 kts 221°
2026-05-04 03:30 24.01350 -39.81941 36100 ft 487 kts 221°
2026-05-04 03:30 23.95960 -39.86371 36096 ft 483 kts 221°
2026-05-04 03:31 23.90612 -39.90760 36094 ft 483 kts 221°
2026-05-04 03:31 23.85237 -39.95169 36097 ft 482 kts 221°
2026-05-04 03:32 23.79865 -39.99572 36098 ft 483 kts 221°
2026-05-04 03:32 23.74485 -40.03975 36095 ft 483 kts 221°
2026-05-04 03:33 23.69098 -40.08380 36100 ft 484 kts 221°
2026-05-04 03:33 23.63714 -40.12777 36099 ft 483 kts 221°
2026-05-04 03:34 23.58355 -40.17149 36103 ft 483 kts 221°
2026-05-04 03:34 23.52967 -40.21540 36102 ft 483 kts 221°
2026-05-04 03:35 23.47580 -40.25926 36091 ft 483 kts 220°
2026-05-04 03:35 23.42223 -40.30283 36100 ft 482 kts 220°
2026-05-04 03:36 23.36836 -40.34660 36103 ft 482 kts 220°
2026-05-04 03:36 23.31463 -40.39021 36102 ft 481 kts 220°
2026-05-04 03:37 23.26084 -40.43382 36100 ft 481 kts 220°
2026-05-04 03:37 23.20753 -40.47700 36092 ft 481 kts 220°
2026-05-04 03:38 23.15377 -40.52051 36101 ft 481 kts 220°
2026-05-04 03:38 23.10010 -40.56390 36103 ft 481 kts 220°
2026-05-04 03:39 23.04628 -40.60735 36101 ft 481 kts 220°
2026-05-04 03:39 22.99260 -40.65065 36097 ft 480 kts 220°
2026-05-04 03:40 22.93898 -40.69386 36103 ft 480 kts 220°
2026-05-04 03:40 22.88574 -40.73671 36105 ft 479 kts 220°
2026-05-04 03:41 22.83213 -40.77983 36106 ft 479 kts 220°
2026-05-04 03:41 22.77858 -40.82286 36105 ft 479 kts 220°
2026-05-04 03:42 22.72490 -40.86594 36105 ft 479 kts 220°
2026-05-04 03:42 22.68033 -40.90167 36100 ft 479 kts 221°
2026-05-04 03:43 22.61824 -40.95140 36108 ft 476 kts 221°
2026-05-04 03:43 22.56491 -40.99408 36108 ft 476 kts 221°
2026-05-04 03:44 22.52060 -41.02952 36104 ft 476 kts 221°
2026-05-04 03:44 22.46728 -41.07212 36105 ft 476 kts 221°
2026-05-04 03:45 22.41392 -41.11470 36106 ft 476 kts 221°
2026-05-04 03:45 22.36057 -41.15723 36099 ft 476 kts 220°
2026-05-04 03:46 22.30721 -41.19973 36105 ft 476 kts 220°
2026-05-04 03:46 22.25426 -41.24186 36105 ft 475 kts 220°
2026-05-04 03:47 22.20090 -41.28428 36108 ft 475 kts 220°
2026-05-04 03:47 22.14754 -41.32665 36108 ft 475 kts 220°
2026-05-04 03:48 22.09464 -41.36863 36109 ft 476 kts 220°
2026-05-04 03:48 22.04125 -41.41094 36099 ft 476 kts 220°
2026-05-04 03:49 21.98792 -41.45317 36106 ft 475 kts 220°
2026-05-04 03:49 21.93464 -41.49532 36109 ft 475 kts 220°
2026-05-04 03:50 21.88141 -41.53739 36114 ft 475 kts 220°
2026-05-04 03:50 21.82816 -41.57944 36106 ft 475 kts 220°
2026-05-04 03:51 21.77486 -41.62149 36113 ft 475 kts 220°
2026-05-04 03:51 21.72184 -41.66327 36110 ft 474 kts 220°
2026-05-04 03:52 21.66864 -41.70515 36110 ft 472 kts 220°
2026-05-04 03:52 21.61556 -41.74690 36110 ft 472 kts 220°
2026-05-04 03:53 21.56260 -41.78854 36109 ft 471 kts 220°
2026-05-04 03:53 21.50983 -41.82997 36110 ft 471 kts 220°
2026-05-04 03:54 21.45678 -41.87159 36111 ft 471 kts 220°
2026-05-04 03:54 21.40416 -41.91283 36110 ft 471 kts 220°
2026-05-04 03:55 21.35125 -41.95427 36114 ft 471 kts 220°
2026-05-04 03:55 21.29829 -41.99570 36106 ft 471 kts 220°
2026-05-04 03:56 21.24526 -42.03715 36108 ft 471 kts 220°
2026-05-04 03:56 21.19226 -42.07854 36107 ft 471 kts 220°
2026-05-04 03:57 21.13926 -42.11988 36111 ft 471 kts 220°
2026-05-04 03:57 21.08623 -42.16122 36110 ft 471 kts 220°
2026-05-04 03:58 21.00711 -42.22282 36114 ft 470 kts 220°
2026-05-04 03:58 20.95418 -42.26398 36098 ft 470 kts 220°
2026-05-04 03:59 20.90127 -42.30510 36110 ft 470 kts 220°
2026-05-04 03:59 20.84829 -42.34623 36110 ft 470 kts 220°
2026-05-04 04:00 20.79527 -42.38736 36115 ft 470 kts 220°
2026-05-04 04:00 20.74235 -42.42838 36104 ft 470 kts 220°
2026-05-04 04:01 20.68964 -42.46919 36108 ft 471 kts 220°
2026-05-04 04:01 20.63652 -42.51028 36110 ft 471 kts 220°
2026-05-04 04:02 20.58334 -42.55139 36105 ft 471 kts 220°
2026-05-04 04:02 20.53023 -42.59241 36104 ft 471 kts 220°
2026-05-04 04:03 20.47710 -42.63340 36106 ft 471 kts 220°
2026-05-04 04:03 20.42396 -42.67437 36100 ft 471 kts 219°
2026-05-04 04:04 20.37108 -42.71510 36101 ft 472 kts 219°
2026-05-04 04:04 20.31766 -42.75621 36104 ft 472 kts 219°
2026-05-04 04:05 20.26440 -42.79716 36102 ft 472 kts 219°
2026-05-04 04:05 20.21110 -42.83811 36097 ft 472 kts 219°
2026-05-04 04:06 20.15806 -42.87882 36099 ft 472 kts 219°
2026-05-04 04:06 20.10472 -42.91973 36094 ft 472 kts 219°
2026-05-04 04:07 20.05123 -42.96072 36103 ft 473 kts 219°
2026-05-04 04:07 19.99603 -42.99914 36263 ft 476 kts 210°
2026-05-04 04:08 19.96624 -43.01347 36535 ft 475 kts 207°
2026-05-04 04:08 19.93568 -43.02688 36759 ft 474 kts 205°
2026-05-04 04:08 19.90502 -43.03972 36900 ft 474 kts 205°
2026-05-04 04:08 19.87423 -43.05233 37071 ft 473 kts 205°
2026-05-04 04:09 19.84345 -43.06483 37212 ft 473 kts 205°
2026-05-04 04:09 19.81269 -43.07732 37330 ft 473 kts 205°
2026-05-04 04:09 19.78200 -43.08984 37442 ft 473 kts 205°
2026-05-04 04:09 19.75128 -43.10241 37573 ft 473 kts 205°
2026-05-04 04:10 19.72058 -43.11500 37702 ft 472 kts 205°
2026-05-04 04:10 19.68987 -43.12761 37826 ft 472 kts 205°
2026-05-04 04:10 19.65957 -43.14006 37945 ft 472 kts 205°
2026-05-04 04:10 19.62889 -43.15266 38053 ft 472 kts 205°
2026-05-04 04:11 19.56741 -43.17791 38097 ft 475 kts 205°
2026-05-04 04:11 19.50548 -43.20332 38096 ft 478 kts 205°
2026-05-04 04:12 19.44343 -43.22873 38097 ft 478 kts 205°
2026-05-04 04:12 19.38176 -43.25395 38097 ft 478 kts 205°
2026-05-04 04:13 19.31962 -43.27937 38094 ft 478 kts 205°
2026-05-04 04:13 19.25752 -43.30474 38094 ft 478 kts 205°
2026-05-04 04:14 19.19544 -43.33010 38097 ft 478 kts 204°
2026-05-04 04:14 19.13382 -43.35523 38091 ft 478 kts 204°
2026-05-04 04:15 19.07174 -43.38054 38094 ft 478 kts 204°
2026-05-04 04:15 19.00961 -43.40585 38094 ft 478 kts 204°
2026-05-04 04:16 18.94742 -43.43116 38082 ft 478 kts 204°
2026-05-04 04:16 18.88551 -43.45634 38089 ft 479 kts 204°
2026-05-04 04:17 18.82325 -43.48164 38091 ft 479 kts 204°
2026-05-04 04:17 18.76131 -43.50678 38089 ft 479 kts 204°
2026-05-04 04:18 18.69897 -43.53208 38089 ft 479 kts 204°
2026-05-04 04:18 18.63669 -43.55733 38086 ft 480 kts 204°
2026-05-04 04:19 18.57465 -43.58246 38087 ft 480 kts 204°
2026-05-04 04:19 18.51185 -43.60787 38083 ft 480 kts 204°
2026-05-04 04:20 18.44984 -43.63295 38080 ft 480 kts 204°
2026-05-04 04:20 18.38739 -43.65819 38091 ft 480 kts 204°
2026-05-04 04:21 18.32484 -43.68345 38085 ft 481 kts 204°
2026-05-04 04:21 18.26235 -43.70866 38087 ft 481 kts 204°
2026-05-04 04:22 18.19984 -43.73387 38083 ft 481 kts 204°
2026-05-04 04:22 18.13776 -43.75887 38086 ft 481 kts 204°
2026-05-04 04:23 18.07537 -43.78399 38080 ft 480 kts 204°
2026-05-04 04:23 18.01299 -43.80908 38081 ft 480 kts 204°
2026-05-04 04:24 17.95056 -43.83418 38076 ft 480 kts 204°
2026-05-04 04:24 17.88816 -43.85924 38079 ft 480 kts 204°
2026-05-04 04:25 17.82576 -43.88429 38074 ft 480 kts 204°
2026-05-04 04:25 17.76324 -43.90936 38080 ft 480 kts 204°
2026-05-04 04:26 17.70080 -43.93438 38081 ft 480 kts 204°
2026-05-04 04:26 17.63840 -43.95937 38081 ft 480 kts 204°
2026-05-04 04:27 17.57634 -43.98420 38078 ft 480 kts 204°
2026-05-04 04:27 17.51385 -44.00919 38078 ft 480 kts 204°
2026-05-04 04:28 17.45146 -44.03412 38074 ft 480 kts 204°
2026-05-04 04:28 17.38904 -44.05904 38075 ft 480 kts 204°
2026-05-04 04:29 17.32658 -44.08396 38073 ft 480 kts 204°
2026-05-04 04:29 17.26413 -44.10886 38070 ft 480 kts 204°
2026-05-04 04:30 17.20197 -44.13362 38067 ft 479 kts 204°
2026-05-04 04:30 17.13962 -44.15844 38079 ft 479 kts 204°
2026-05-04 04:31 17.08773 -44.17909 38088 ft 479 kts 204°
2026-05-04 04:31 17.02529 -44.20391 38067 ft 479 kts 204°
2026-05-04 04:32 16.96297 -44.22867 38069 ft 478 kts 204°
2026-05-04 04:32 16.89065 -44.25738 38080 ft 478 kts 204°
2026-05-04 04:33 16.83849 -44.27807 38076 ft 478 kts 204°
2026-05-04 04:33 16.77639 -44.30270 38060 ft 478 kts 204°
2026-05-04 04:34 16.71463 -44.32716 38069 ft 478 kts 204°
2026-05-04 04:34 16.65242 -44.35178 38065 ft 476 kts 204°
2026-05-04 04:35 16.59058 -44.37625 38073 ft 475 kts 204°
2026-05-04 04:35 16.52865 -44.40074 38070 ft 475 kts 204°
2026-05-04 04:36 16.46703 -44.42509 38061 ft 475 kts 204°
2026-05-04 04:36 16.40506 -44.44955 38068 ft 474 kts 204°
2026-05-04 04:37 16.28214 -44.49803 38071 ft 473 kts 205°
2026-05-04 04:38 16.22054 -44.52231 38067 ft 473 kts 204°
2026-05-04 04:38 16.15896 -44.54656 38060 ft 473 kts 205°
2026-05-04 04:39 16.09749 -44.57073 38065 ft 471 kts 205°
2026-05-04 04:39 16.03628 -44.59480 38065 ft 470 kts 205°
2026-05-04 04:40 15.97512 -44.61885 38060 ft 470 kts 205°
2026-05-04 04:40 15.91424 -44.64276 38064 ft 470 kts 205°
2026-05-04 04:41 15.85303 -44.66678 38066 ft 469 kts 205°
2026-05-04 04:41 15.79214 -44.69065 38054 ft 467 kts 205°
2026-05-04 04:42 15.73129 -44.71450 38061 ft 467 kts 205°
2026-05-04 04:42 15.67082 -44.73819 38067 ft 467 kts 205°
2026-05-04 04:43 15.60997 -44.76201 38067 ft 467 kts 205°
2026-05-04 04:43 15.54921 -44.78579 38064 ft 467 kts 205°
2026-05-04 04:44 15.48832 -44.80959 38061 ft 467 kts 205°
2026-05-04 04:44 15.42782 -44.83323 38064 ft 467 kts 205°
2026-05-04 04:45 15.36688 -44.85702 38060 ft 468 kts 205°
2026-05-04 04:47 15.15390 -44.94006 38055 ft 466 kts 205°
2026-05-04 04:47 15.09344 -44.96361 38054 ft 466 kts 205°
2026-05-04 04:48 15.03255 -44.98730 38049 ft 466 kts 205°
2026-05-04 04:49 14.89154 -45.06615 38048 ft 460 kts 215°
2026-05-04 04:49 14.83700 -45.09988 38047 ft 460 kts 215°
2026-05-04 04:50 14.78204 -45.13374 38048 ft 460 kts 214°
2026-05-04 04:50 14.72696 -45.16754 38047 ft 459 kts 214°
2026-05-04 04:51 14.67225 -45.20105 38045 ft 459 kts 214°
2026-05-04 04:51 14.61725 -45.23472 38045 ft 459 kts 214°
2026-05-04 04:52 14.56230 -45.26835 38043 ft 460 kts 214°
2026-05-04 04:52 14.50723 -45.30203 38040 ft 460 kts 214°
2026-05-04 04:53 14.45217 -45.33568 38043 ft 460 kts 214°
2026-05-04 04:53 14.39714 -45.36930 38043 ft 460 kts 214°
2026-05-04 04:54 14.34193 -45.40301 38047 ft 460 kts 214°
2026-05-04 04:54 14.28668 -45.43673 38045 ft 461 kts 214°
2026-05-04 04:55 14.23180 -45.47019 38037 ft 462 kts 214°
2026-05-04 04:55 14.17649 -45.50390 38037 ft 462 kts 214°
2026-05-04 04:56 14.12111 -45.53763 38033 ft 462 kts 214°
2026-05-04 04:56 14.06582 -45.57129 38042 ft 462 kts 214°
2026-05-04 04:57 14.01053 -45.60494 38035 ft 462 kts 214°
2026-05-04 04:57 13.95531 -45.63852 38035 ft 463 kts 214°
2026-05-04 04:58 13.89979 -45.67225 38036 ft 462 kts 214°
2026-05-04 04:58 13.84448 -45.70584 38035 ft 461 kts 214°
2026-05-04 04:59 13.78925 -45.73938 38036 ft 460 kts 214°
2026-05-04 04:59 13.73436 -45.77268 38032 ft 460 kts 214°
2026-05-04 05:00 13.67899 -45.80627 38026 ft 461 kts 214°
2026-05-04 05:01 13.59617 -45.85644 38027 ft 459 kts 214°
2026-05-04 05:01 13.54136 -45.88964 38035 ft 459 kts 214°
2026-05-04 05:02 13.48618 -45.92304 38023 ft 460 kts 214°
2026-05-04 05:02 13.43106 -45.95638 38030 ft 458 kts 214°
2026-05-04 05:03 13.37622 -45.98953 38017 ft 457 kts 214°
2026-05-04 05:04 13.26676 -46.05567 38038 ft 458 kts 214°
2026-05-04 05:04 13.21177 -46.08886 38018 ft 458 kts 214°
2026-05-04 05:06 12.99201 -46.22134 38022 ft 458 kts 214°
2026-05-04 05:07 12.93716 -46.25435 38030 ft 455 kts 214°
2026-05-04 05:07 12.88253 -46.28722 38023 ft 455 kts 214°
2026-05-04 05:09 12.63751 -46.43446 38018 ft 453 kts 214°
2026-05-04 05:10 12.58312 -46.46710 38018 ft 453 kts 214°
2026-05-04 05:10 12.52862 -46.49978 38013 ft 453 kts 214°
2026-05-04 05:11 12.47421 -46.53239 38018 ft 452 kts 214°
2026-05-04 05:11 12.42034 -46.56468 38018 ft 451 kts 214°
2026-05-04 05:12 12.36607 -46.59718 38016 ft 452 kts 213°
2026-05-04 05:12 12.31179 -46.62968 38016 ft 452 kts 213°
2026-05-04 05:13 12.25810 -46.66179 38014 ft 451 kts 213°
2026-05-04 05:13 12.20397 -46.69417 38013 ft 451 kts 213°
2026-05-04 05:14 12.14981 -46.72654 38013 ft 451 kts 213°
2026-05-04 05:14 12.09554 -46.75897 38012 ft 451 kts 213°
2026-05-04 05:15 12.04171 -46.79111 38007 ft 450 kts 213°
2026-05-04 05:15 11.98765 -46.82337 38016 ft 450 kts 213°
2026-05-04 05:16 11.93359 -46.85563 38011 ft 450 kts 213°
2026-05-04 05:16 11.87951 -46.88788 38011 ft 450 kts 213°
2026-05-04 05:17 11.82576 -46.91992 38000 ft 450 kts 213°
2026-05-04 05:17 11.77188 -46.95201 38010 ft 445 kts 214°
2026-05-04 05:18 11.71848 -46.98381 38011 ft 444 kts 213°
2026-05-04 05:18 11.66494 -47.01569 38007 ft 446 kts 213°
2026-05-04 05:19 11.61129 -47.04762 37997 ft 446 kts 213°
2026-05-04 05:19 11.55801 -47.07930 38002 ft 445 kts 213°
2026-05-04 05:20 11.50463 -47.11102 38004 ft 443 kts 213°
2026-05-04 05:20 11.45125 -47.14274 38004 ft 443 kts 213°
2026-05-04 05:21 11.40691 -47.16908 38001 ft 443 kts 213°
2026-05-04 05:21 11.35354 -47.20077 37999 ft 444 kts 213°
2026-05-04 05:22 11.30003 -47.23253 38001 ft 445 kts 213°
2026-05-04 05:22 11.24656 -47.26424 38001 ft 445 kts 213°
2026-05-04 05:23 11.19307 -47.29595 37998 ft 445 kts 213°
2026-05-04 05:23 11.13960 -47.32764 38001 ft 444 kts 213°
2026-05-04 05:24 11.08638 -47.35917 37985 ft 445 kts 213°
2026-05-04 05:24 11.03277 -47.39093 38001 ft 446 kts 213°
2026-05-04 05:25 10.97895 -47.42278 37995 ft 447 kts 213°
2026-05-04 05:25 10.92520 -47.45458 37998 ft 447 kts 213°
2026-05-04 05:26 10.87175 -47.48619 37997 ft 447 kts 213°
2026-05-04 05:26 10.81795 -47.51799 37996 ft 447 kts 213°
2026-05-04 05:28 10.60275 -47.64508 37976 ft 448 kts 213°
2026-05-04 05:29 10.54892 -47.67684 37990 ft 448 kts 213°
2026-05-04 05:29 10.49538 -47.70841 37991 ft 448 kts 213°
2026-05-04 05:31 10.27985 -47.83538 37985 ft 448 kts 213°
2026-05-04 05:32 10.22589 -47.86713 37985 ft 448 kts 213°
2026-05-04 05:33 10.14495 -47.91475 37985 ft 448 kts 213°
2026-05-04 05:33 10.09131 -47.94628 37970 ft 448 kts 213°
2026-05-04 05:34 10.03713 -47.97813 37986 ft 451 kts 213°
2026-05-04 05:34 9.98518 -48.01336 37989 ft 447 kts 221°
2026-05-04 05:35 9.93709 -48.05335 37981 ft 446 kts 223°
2026-05-04 05:35 9.88965 -48.09413 37983 ft 446 kts 223°
2026-05-04 05:36 9.84262 -48.13467 37977 ft 446 kts 223°
2026-05-04 05:36 9.79510 -48.17545 37979 ft 448 kts 223°
2026-05-04 05:37 9.74751 -48.21620 37980 ft 448 kts 223°
2026-05-04 05:37 9.69980 -48.25699 37977 ft 447 kts 223°
2026-05-04 05:38 9.62847 -48.31796 37977 ft 447 kts 223°
2026-05-04 05:38 9.58122 -48.35835 37977 ft 447 kts 223°
2026-05-04 05:39 9.50978 -48.41938 37974 ft 448 kts 223°
2026-05-04 05:40 9.43831 -48.48037 37974 ft 447 kts 223°
2026-05-04 05:40 9.39069 -48.52101 37972 ft 447 kts 223°
2026-05-04 05:41 9.34344 -48.56135 37969 ft 447 kts 223°
2026-05-04 05:41 9.29565 -48.60212 37971 ft 450 kts 223°
2026-05-04 05:42 9.24787 -48.64282 37969 ft 450 kts 223°
2026-05-04 05:42 9.20003 -48.68356 37968 ft 449 kts 223°
2026-05-04 05:43 9.15219 -48.72431 37972 ft 448 kts 223°
2026-05-04 05:45 8.96030 -48.88762 37968 ft 453 kts 223°
2026-05-04 05:47 8.76676 -49.05209 37963 ft 457 kts 223°
2026-05-04 05:47 8.71800 -49.09348 37962 ft 457 kts 223°
2026-05-04 05:48 8.66954 -49.13461 37963 ft 457 kts 223°
2026-05-04 05:48 8.62054 -49.17617 37963 ft 457 kts 223°
2026-05-04 05:49 8.57203 -49.21731 37960 ft 458 kts 223°
2026-05-04 05:49 8.52317 -49.25875 37961 ft 459 kts 223°
2026-05-04 05:51 8.32745 -49.42453 37956 ft 460 kts 223°
2026-05-04 05:52 8.27840 -49.46604 37957 ft 460 kts 223°
2026-05-04 05:52 8.22953 -49.50739 37956 ft 460 kts 223°
2026-05-04 05:54 8.03334 -49.67323 37953 ft 461 kts 223°
2026-05-04 05:55 7.98412 -49.71483 37955 ft 461 kts 223°
2026-05-04 05:55 7.93496 -49.75634 37957 ft 461 kts 223°
2026-05-04 05:56 7.88596 -49.79770 37966 ft 462 kts 223°
2026-05-04 05:56 7.83671 -49.83926 37963 ft 462 kts 223°
2026-05-04 05:57 7.78746 -49.88080 37962 ft 461 kts 224°
2026-05-04 05:57 7.73824 -49.92231 37953 ft 461 kts 224°
2026-05-04 05:58 7.68898 -49.96384 37949 ft 461 kts 224°
2026-05-04 05:58 7.63969 -50.00540 37950 ft 462 kts 224°
2026-05-04 05:59 7.59032 -50.04699 37950 ft 462 kts 224°
2026-05-04 05:59 7.54124 -50.08832 37957 ft 463 kts 224°
2026-05-04 06:00 7.49170 -50.13004 37958 ft 464 kts 224°
2026-05-04 06:00 7.44208 -50.17180 37955 ft 464 kts 224°
2026-05-04 06:01 7.39257 -50.21347 37957 ft 464 kts 224°
2026-05-04 06:03 7.19400 -50.38044 37951 ft 467 kts 224°
2026-05-04 06:05 6.96902 -50.56938 37944 ft 469 kts 223°
2026-05-04 06:06 6.91896 -50.61138 37949 ft 469 kts 223°
2026-05-04 06:06 6.86880 -50.65346 37952 ft 469 kts 223°
2026-05-04 06:07 6.82704 -50.68848 37942 ft 469 kts 223°
2026-05-04 06:07 6.76875 -50.73735 37945 ft 469 kts 223°
2026-05-04 06:08 6.71848 -50.77949 37943 ft 470 kts 222°
2026-05-04 06:08 6.66826 -50.82157 37945 ft 470 kts 222°
2026-05-04 06:09 6.62649 -50.85656 37943 ft 470 kts 222°
2026-05-04 06:11 6.42543 -51.02490 37946 ft 472 kts 222°
2026-05-04 06:13 6.22318 -51.19403 37931 ft 472 kts 222°
2026-05-04 06:14 6.04566 -51.34235 37934 ft 475 kts 222°
2026-05-04 06:15 5.99477 -51.38484 37938 ft 475 kts 222°
2026-05-04 06:15 5.94391 -51.42731 37944 ft 475 kts 222°
2026-05-04 06:16 5.89310 -51.46971 37939 ft 478 kts 222°
2026-05-04 06:16 5.84186 -51.51248 37939 ft 479 kts 222°
2026-05-04 06:17 5.79055 -51.55527 37941 ft 479 kts 222°
2026-05-04 06:17 5.73922 -51.59807 37937 ft 479 kts 222°
2026-05-04 06:18 5.68819 -51.64062 37938 ft 479 kts 222°
2026-05-04 06:20 5.48329 -51.81137 37939 ft 479 kts 222°
2026-05-04 06:21 5.35515 -51.91807 37940 ft 478 kts 222°
2026-05-04 06:22 5.30384 -51.96078 37941 ft 479 kts 222°
2026-05-04 06:25 4.94454 -52.25957 37935 ft 480 kts 222°
2026-05-04 06:26 4.89341 -52.30206 37938 ft 480 kts 222°
2026-05-04 06:26 4.84198 -52.34478 37939 ft 480 kts 222°
2026-05-04 06:27 4.71776 -52.45637 37939 ft 479 kts 226°
2026-05-04 06:28 4.66927 -52.50233 37944 ft 480 kts 226°
2026-05-04 06:28 4.62050 -52.54792 37943 ft 479 kts 225°
2026-05-04 06:29 4.57188 -52.59308 37941 ft 478 kts 225°
2026-05-04 06:29 4.52306 -52.63838 37948 ft 479 kts 226°
2026-05-04 06:30 4.47407 -52.68387 37945 ft 480 kts 226°
2026-05-04 06:30 4.42497 -52.72946 37946 ft 480 kts 226°
2026-05-04 06:31 4.37623 -52.77471 37943 ft 480 kts 225°
2026-05-04 06:31 4.32714 -52.82028 37946 ft 481 kts 225°
2026-05-04 06:33 4.13342 -53.00555 37955 ft 482 kts 226°
2026-05-04 06:34 4.08477 -53.05209 37952 ft 484 kts 226°
2026-05-04 06:34 4.03640 -53.09833 37954 ft 484 kts 226°
2026-05-04 06:36 3.84155 -53.28457 37956 ft 483 kts 226°
2026-05-04 06:37 3.79283 -53.33112 37955 ft 484 kts 226°
2026-05-04 06:37 3.74444 -53.37735 37955 ft 484 kts 226°
2026-05-04 06:38 3.69576 -53.42385 37954 ft 483 kts 226°
2026-05-04 06:40 3.50052 -53.61015 37952 ft 485 kts 226°
2026-05-04 06:40 3.45196 -53.65646 37951 ft 485 kts 226°
2026-05-04 06:41 3.40303 -53.70313 37953 ft 485 kts 226°
2026-05-04 06:41 3.35414 -53.74975 37949 ft 486 kts 226°
2026-05-04 06:42 3.30533 -53.79629 37949 ft 487 kts 226°
2026-05-04 06:44 3.10882 -53.98356 37950 ft 487 kts 225°
2026-05-04 06:44 3.05962 -54.03044 37946 ft 488 kts 225°
2026-05-04 06:45 3.01070 -54.07704 37952 ft 489 kts 225°
2026-05-04 06:45 2.96133 -54.12406 37952 ft 489 kts 225°
2026-05-04 06:46 2.91301 -54.17191 37953 ft 487 kts 230°
2026-05-04 06:46 2.86886 -54.22268 37950 ft 487 kts 231°
2026-05-04 06:48 2.69398 -54.42944 37952 ft 486 kts 231°
2026-05-04 06:50 2.51932 -54.63547 37955 ft 485 kts 231°
2026-05-04 06:51 2.47562 -54.68655 37955 ft 486 kts 228°
2026-05-04 06:51 2.42821 -54.73486 37958 ft 487 kts 226°
2026-05-04 06:52 2.38003 -54.78253 37960 ft 486 kts 226°
2026-05-04 06:52 2.33186 -54.82993 37960 ft 485 kts 226°
2026-05-04 06:53 2.28403 -54.87706 37963 ft 485 kts 226°
2026-05-04 06:53 2.23591 -54.92454 37963 ft 485 kts 226°
2026-05-04 06:54 2.18776 -54.97209 37966 ft 485 kts 226°
2026-05-04 06:54 2.13996 -55.01929 37966 ft 486 kts 226°
2026-05-04 06:55 2.09186 -55.06677 37960 ft 485 kts 226°
2026-05-04 06:55 2.04386 -55.11414 37960 ft 485 kts 226°
2026-05-04 06:57 1.85174 -55.30372 37963 ft 484 kts 225°
2026-05-04 06:58 1.80405 -55.35076 37959 ft 484 kts 225°
2026-05-04 06:58 1.75618 -55.39797 37960 ft 484 kts 225°
2026-05-04 06:59 1.70824 -55.44526 37960 ft 483 kts 225°
2026-05-04 06:59 1.66034 -55.49251 37958 ft 483 kts 225°
2026-05-04 07:01 1.47701 -55.67342 37958 ft 484 kts 224°
2026-05-04 07:02 1.42900 -55.72080 37957 ft 484 kts 224°
2026-05-04 07:02 1.38104 -55.76813 37958 ft 484 kts 224°
2026-05-04 07:03 1.33307 -55.81549 37958 ft 484 kts 224°
2026-05-04 07:03 1.28510 -55.86285 37958 ft 484 kts 224°
2026-05-04 07:04 1.23712 -55.91021 37957 ft 485 kts 224°
2026-05-04 07:04 1.18901 -55.95770 37957 ft 486 kts 224°
2026-05-04 07:05 1.14117 -56.00492 37958 ft 486 kts 224°
2026-05-04 07:05 1.09303 -56.05243 37954 ft 486 kts 224°
2026-05-04 07:06 1.02079 -56.12374 37951 ft 486 kts 224°
2026-05-04 07:07 0.97265 -56.17125 37953 ft 486 kts 224°
2026-05-04 07:09 0.77994 -56.36141 37953 ft 488 kts 224°
2026-05-04 07:09 0.73168 -56.40903 37949 ft 488 kts 224°
2026-05-04 07:10 0.68338 -56.45669 37952 ft 488 kts 224°
2026-05-04 07:12 0.48990 -56.64758 37950 ft 490 kts 224°
2026-05-04 07:12 0.44137 -56.69546 37949 ft 490 kts 224°
2026-05-04 07:13 0.39281 -56.74337 37945 ft 490 kts 224°
2026-05-04 07:13 0.34425 -56.79127 37946 ft 490 kts 224°
2026-05-04 07:14 0.22249 -56.91139 37947 ft 493 kts 224°
2026-05-04 07:15 0.17371 -56.95951 37947 ft 493 kts 224°
2026-05-04 07:15 0.12488 -57.00769 37945 ft 493 kts 224°
2026-05-04 07:16 0.07639 -57.05551 37947 ft 493 kts 224°
2026-05-04 07:16 0.02752 -57.10372 37946 ft 493 kts 224°
2026-05-04 07:17 -0.02122 -57.15180 37942 ft 492 kts 224°
2026-05-04 07:17 -0.06980 -57.19972 37941 ft 493 kts 224°
2026-05-04 07:18 -0.11866 -57.24793 37944 ft 493 kts 224°
2026-05-04 07:18 -0.16756 -57.29617 37947 ft 493 kts 224°
2026-05-04 07:19 -0.21648 -57.34443 37945 ft 493 kts 224°
2026-05-04 07:19 -0.26538 -57.39266 37941 ft 494 kts 224°
2026-05-04 07:20 -0.31400 -57.44063 37944 ft 494 kts 224°
2026-05-04 07:20 -0.36290 -57.48887 37946 ft 494 kts 224°
2026-05-04 07:22 -0.55861 -57.68196 37943 ft 496 kts 224°
2026-05-04 07:23 -0.60789 -57.73058 37941 ft 498 kts 224°
2026-05-04 07:23 -0.65748 -57.77916 37940 ft 499 kts 221°
2026-05-04 07:24 -0.68412 -57.80150 38073 ft 499 kts 218°
2026-05-04 07:24 -0.71122 -57.82312 38297 ft 497 kts 217°
2026-05-04 07:24 -0.73838 -57.84439 38490 ft 496 kts 217°
2026-05-04 07:24 -0.76569 -57.86555 38698 ft 495 kts 217°
2026-05-04 07:26 -0.98241 -58.03334 39671 ft 491 kts 217°
2026-05-04 07:27 -1.00927 -58.05418 39876 ft 488 kts 217°
2026-05-04 07:27 -1.03614 -58.07502 39932 ft 489 kts 217°
2026-05-04 07:27 -1.08970 -58.11657 39933 ft 490 kts 217°
2026-05-04 07:28 -1.14359 -58.15839 39939 ft 490 kts 217°
2026-05-04 07:28 -1.19748 -58.20020 39935 ft 490 kts 217°
2026-05-04 07:29 -1.25139 -58.24203 39931 ft 491 kts 217°
2026-05-04 07:29 -1.30548 -58.28400 39926 ft 492 kts 217°
2026-05-04 07:30 -1.35966 -58.32605 39936 ft 494 kts 217°
2026-05-04 07:30 -1.41397 -58.36820 39935 ft 494 kts 217°
2026-05-04 07:31 -1.46832 -58.41038 39926 ft 494 kts 217°
2026-05-04 07:33 -1.68527 -58.57879 39922 ft 493 kts 217°
2026-05-04 07:33 -1.73949 -58.62088 39925 ft 493 kts 217°
2026-05-04 07:34 -1.79339 -58.66273 39922 ft 493 kts 217°
2026-05-04 07:34 -1.84753 -58.70478 39922 ft 493 kts 217°
2026-05-04 07:35 -1.90169 -58.74683 39927 ft 493 kts 217°
2026-05-04 07:35 -1.95590 -58.78893 39923 ft 493 kts 217°
2026-05-04 07:36 -2.01016 -58.83108 39925 ft 494 kts 217°
2026-05-04 07:38 -2.22704 -58.99955 39915 ft 494 kts 217°
2026-05-04 07:38 -2.28129 -59.04171 39920 ft 494 kts 217°
2026-05-04 07:39 -2.33560 -59.08392 39919 ft 495 kts 216°
2026-05-04 07:39 -2.38971 -59.12597 39920 ft 496 kts 216°
2026-05-04 07:40 -2.44423 -59.16835 39920 ft 496 kts 216°
2026-05-04 07:40 -2.49865 -59.21065 39919 ft 496 kts 216°
2026-05-04 07:41 -2.55325 -59.25310 39921 ft 496 kts 216°
2026-05-04 07:41 -2.60773 -59.29546 39919 ft 496 kts 216°
2026-05-04 07:42 -2.66204 -59.33769 39919 ft 496 kts 216°
2026-05-04 07:42 -2.71649 -59.38004 39916 ft 495 kts 216°
2026-05-04 07:43 -2.77088 -59.42235 39915 ft 495 kts 216°
2026-05-04 07:43 -2.82528 -59.46466 39914 ft 495 kts 216°
2026-05-04 07:44 -2.87964 -59.50695 39913 ft 495 kts 216°
2026-05-04 07:44 -2.93378 -59.54908 39917 ft 495 kts 216°
2026-05-04 07:45 -2.98825 -59.59146 39916 ft 495 kts 216°
2026-05-04 07:45 -3.04279 -59.63390 39915 ft 496 kts 217°
2026-05-04 07:46 -3.09722 -59.67628 39917 ft 496 kts 217°
2026-05-04 07:46 -3.15143 -59.71848 39928 ft 496 kts 217°
2026-05-04 07:47 -3.20589 -59.76089 39929 ft 496 kts 217°
2026-05-04 07:49 -3.41470 -59.92351 39919 ft 496 kts 217°
2026-05-04 07:49 -3.46918 -59.96596 39917 ft 496 kts 217°
2026-05-04 07:50 -3.52358 -60.00835 39908 ft 495 kts 217°
2026-05-04 07:50 -3.57797 -60.05074 39921 ft 495 kts 217°
2026-05-04 07:51 -3.63212 -60.09295 39911 ft 496 kts 217°
2026-05-04 07:51 -3.68658 -60.13541 39919 ft 496 kts 217°
2026-05-04 07:52 -3.74097 -60.17782 39913 ft 495 kts 217°
2026-05-04 07:52 -3.79536 -60.22024 39912 ft 495 kts 217°
2026-05-04 07:54 -4.02949 -60.35636 39915 ft 491 kts 192°
2026-05-04 07:55 -4.09580 -60.37166 39914 ft 493 kts 191°
2026-05-04 07:55 -4.16280 -60.38673 39919 ft 492 kts 191°
2026-05-04 07:56 -4.22966 -60.40205 39923 ft 492 kts 192°
2026-05-04 07:56 -4.29644 -60.41754 39923 ft 492 kts 192°
2026-05-04 07:57 -4.36326 -60.43309 39922 ft 493 kts 192°
2026-05-04 07:57 -4.43014 -60.44865 39917 ft 493 kts 192°
2026-05-04 07:58 -4.49664 -60.46412 39921 ft 493 kts 192°
2026-05-04 07:58 -4.56351 -60.47967 39919 ft 494 kts 192°
2026-05-04 07:59 -4.63052 -60.49526 39917 ft 494 kts 192°
2026-05-04 07:59 -4.69750 -60.51084 39919 ft 493 kts 192°
2026-05-04 08:00 -4.76426 -60.52638 39919 ft 492 kts 192°
2026-05-04 08:02 -5.03097 -60.58847 39926 ft 492 kts 192°
2026-05-04 08:02 -5.09777 -60.60403 39927 ft 492 kts 192°
2026-05-04 08:03 -5.16448 -60.61957 39924 ft 492 kts 192°
2026-05-04 08:03 -5.23123 -60.63513 39921 ft 492 kts 192°
2026-05-04 08:04 -5.29759 -60.65060 39923 ft 492 kts 192°
2026-05-04 08:04 -5.36439 -60.66617 39928 ft 493 kts 193°
2026-05-04 08:05 -5.43135 -60.68178 39924 ft 493 kts 193°
2026-05-04 08:05 -5.49818 -60.69738 39926 ft 493 kts 193°
2026-05-04 08:06 -5.56469 -60.71289 39928 ft 493 kts 193°
2026-05-04 08:06 -5.63161 -60.72852 39928 ft 493 kts 193°
2026-05-04 08:08 -5.89849 -60.79108 39927 ft 490 kts 193°
2026-05-04 08:11 -6.19819 -60.86140 39927 ft 493 kts 193°
2026-05-04 08:11 -6.29852 -60.88496 39927 ft 493 kts 193°
2026-05-04 08:12 -6.36510 -60.90035 39927 ft 495 kts 193°
2026-05-04 08:12 -6.43250 -60.91546 39925 ft 497 kts 193°
2026-05-04 08:13 -6.50007 -60.93061 39925 ft 497 kts 193°
2026-05-04 08:13 -6.56762 -60.94583 39923 ft 497 kts 193°
2026-05-04 08:14 -6.63509 -60.96107 39927 ft 497 kts 193°
2026-05-04 08:16 -6.90406 -61.02188 39928 ft 495 kts 193°
2026-05-04 08:16 -6.97133 -61.03710 39925 ft 495 kts 193°
2026-05-04 08:17 -7.03868 -61.05235 39925 ft 494 kts 193°
2026-05-04 08:17 -7.10518 -61.06740 39926 ft 493 kts 193°
2026-05-04 08:19 -7.37302 -61.12808 39918 ft 496 kts 193°
2026-05-04 08:20 -7.44056 -61.14340 39921 ft 497 kts 193°
2026-05-04 08:20 -7.50811 -61.15872 39922 ft 497 kts 193°
2026-05-04 08:21 -7.57567 -61.17404 39920 ft 497 kts 193°
2026-05-04 08:21 -7.64321 -61.18937 39920 ft 497 kts 193°
2026-05-04 08:22 -7.71085 -61.20472 39922 ft 499 kts 193°
2026-05-04 08:24 -7.98172 -61.26634 39921 ft 499 kts 193°
2026-05-04 08:24 -8.04960 -61.28180 39916 ft 500 kts 193°
2026-05-04 08:25 -8.11761 -61.29729 39916 ft 500 kts 193°
2026-05-04 08:25 -8.18556 -61.31278 39917 ft 500 kts 193°
2026-05-04 08:27 -8.45537 -61.37436 39917 ft 492 kts 193°
2026-05-04 08:28 -8.52213 -61.38950 39921 ft 491 kts 193°
2026-05-04 08:28 -8.58891 -61.40468 39916 ft 492 kts 194°
2026-05-04 08:29 -8.65565 -61.41988 39913 ft 492 kts 194°
2026-05-04 08:31 -8.92277 -61.48078 39919 ft 492 kts 194°
2026-05-04 08:33 -9.19032 -61.54189 39921 ft 494 kts 194°
2026-05-04 08:35 -9.45830 -61.60229 39920 ft 494 kts 194°
2026-05-04 08:35 -9.52546 -61.61746 39922 ft 494 kts 194°
2026-05-04 08:37 -9.75970 -61.67273 39921 ft 493 kts 195°
2026-05-04 08:38 -9.81517 -61.68638 39919 ft 493 kts 195°
2026-05-04 08:38 -9.89273 -61.70527 39919 ft 493 kts 195°
2026-05-04 08:40 -10.14812 -61.76733 39927 ft 492 kts 195°
2026-05-04 08:41 -10.21476 -61.78355 39926 ft 492 kts 195°
2026-05-04 08:41 -10.28143 -61.79980 39925 ft 492 kts 195°
2026-05-04 08:42 -10.34811 -61.81604 39925 ft 492 kts 195°
2026-05-04 08:42 -10.41474 -61.83229 39925 ft 492 kts 195°
2026-05-04 08:43 -10.48144 -61.84857 39929 ft 492 kts 195°
2026-05-04 08:43 -10.54802 -61.86481 39932 ft 492 kts 195°
2026-05-04 08:44 -10.61422 -61.88098 39927 ft 492 kts 195°
2026-05-04 08:46 -10.88071 -61.94613 39930 ft 491 kts 195°
2026-05-04 08:46 -10.94787 -61.95975 39933 ft 492 kts 190°
2026-05-04 08:47 -11.01563 -61.96957 39932 ft 492 kts 189°
2026-05-04 08:47 -11.08306 -61.97924 39931 ft 492 kts 190°
2026-05-04 08:48 -11.15083 -61.98962 39934 ft 492 kts 190°
2026-05-04 08:48 -11.21845 -62.00035 39938 ft 492 kts 190°
2026-05-04 08:49 -11.28610 -62.01114 39933 ft 492 kts 190°
2026-05-04 08:50 -11.52259 -62.04880 39938 ft 492 kts 191°
2026-05-04 08:51 -11.59032 -62.05957 39942 ft 492 kts 191°
2026-05-04 08:51 -11.65810 -62.07038 39950 ft 492 kts 191°
2026-05-04 08:52 -11.72590 -62.08118 39943 ft 493 kts 191°
2026-05-04 08:52 -11.79312 -62.09245 39947 ft 492 kts 192°
2026-05-04 08:54 -12.06262 -62.14441 39958 ft 493 kts 192°
2026-05-04 08:55 -12.12964 -62.15713 39953 ft 493 kts 192°
2026-05-04 08:55 -12.19713 -62.16996 39953 ft 493 kts 192°
2026-05-04 09:01 -12.90440 -62.30499 39944 ft 492 kts 192°
2026-05-04 09:01 -12.97171 -62.31787 39947 ft 492 kts 193°
2026-05-04 09:02 -13.03862 -62.33070 39947 ft 492 kts 193°
2026-05-04 09:02 -13.10583 -62.34360 39953 ft 491 kts 193°
2026-05-04 09:03 -13.17313 -62.35652 39953 ft 491 kts 193°
2026-05-04 09:03 -13.24046 -62.36867 39949 ft 492 kts 192°
2026-05-04 09:04 -13.30791 -62.38041 39949 ft 492 kts 192°
2026-05-04 09:04 -13.37532 -62.39225 39950 ft 491 kts 192°
2026-05-04 09:05 -13.44257 -62.40419 39950 ft 491 kts 192°
2026-05-04 09:05 -13.50995 -62.41620 39954 ft 490 kts 192°
2026-05-04 09:06 -13.57685 -62.42813 39952 ft 491 kts 192°
2026-05-04 09:08 -13.84616 -62.47612 39939 ft 491 kts 192°
2026-05-04 09:08 -13.91312 -62.48793 39952 ft 491 kts 192°
2026-05-04 09:09 -13.98040 -62.49983 39943 ft 490 kts 192°
2026-05-04 09:09 -14.04761 -62.51175 39940 ft 489 kts 192°
2026-05-04 09:10 -14.11473 -62.52367 39950 ft 489 kts 192°
2026-05-04 09:10 -14.18189 -62.53560 39949 ft 489 kts 192°
2026-05-04 09:11 -14.24870 -62.54747 39961 ft 489 kts 192°
2026-05-04 09:11 -14.31583 -62.55941 39953 ft 489 kts 192°
2026-05-04 09:12 -14.38292 -62.57134 39957 ft 489 kts 192°
2026-05-04 09:14 -14.65091 -62.61910 39962 ft 489 kts 192°
2026-05-04 09:14 -14.71793 -62.63106 39960 ft 488 kts 192°
2026-05-04 09:15 -14.78501 -62.64304 39965 ft 488 kts 192°
2026-05-04 09:15 -14.85160 -62.65494 39958 ft 488 kts 192°
2026-05-04 09:17 -15.15279 -62.70864 39970 ft 487 kts 192°
2026-05-04 09:18 -15.21971 -62.72049 39974 ft 487 kts 192°
2026-05-04 09:18 -15.28617 -62.73227 39974 ft 486 kts 192°
2026-05-04 09:19 -15.35282 -62.74410 39978 ft 486 kts 192°
2026-05-04 09:19 -15.41956 -62.75596 39975 ft 485 kts 192°
2026-05-04 09:20 -15.48582 -62.76774 39975 ft 485 kts 192°
2026-05-04 09:20 -15.55246 -62.77960 39970 ft 485 kts 192°
2026-05-04 09:21 -15.61911 -62.79146 39979 ft 485 kts 193°
2026-05-04 09:21 -15.68564 -62.80331 39974 ft 485 kts 193°
2026-05-04 09:22 -15.75183 -62.81511 39976 ft 485 kts 193°
2026-05-04 09:22 -15.81830 -62.82696 39984 ft 485 kts 193°
2026-05-04 09:23 -15.88476 -62.83882 39983 ft 484 kts 193°
2026-05-04 09:23 -15.95115 -62.85067 39993 ft 483 kts 193°
2026-05-04 09:25 -16.21601 -62.89806 39986 ft 483 kts 193°
2026-05-04 09:26 -16.28222 -62.90992 39984 ft 482 kts 193°
2026-05-04 09:26 -16.33708 -62.91978 39984 ft 481 kts 193°
2026-05-04 09:27 -16.40314 -62.93141 39978 ft 481 kts 193°
2026-05-04 09:27 -16.46920 -62.94294 39987 ft 481 kts 193°
2026-05-04 09:28 -16.53531 -62.95453 39977 ft 481 kts 193°
2026-05-04 09:28 -16.60115 -62.96611 39980 ft 479 kts 193°
2026-05-04 09:29 -16.66635 -62.97761 39981 ft 477 kts 193°
2026-05-04 09:29 -16.73197 -62.98920 39983 ft 477 kts 193°
2026-05-04 09:30 -16.79746 -63.00076 39979 ft 477 kts 193°
2026-05-04 09:30 -16.86307 -63.01235 39989 ft 477 kts 193°
2026-05-04 09:31 -16.92860 -63.02394 39985 ft 477 kts 193°
2026-05-04 09:31 -16.99370 -63.03545 39983 ft 477 kts 193°
2026-05-04 09:32 -17.05918 -63.04704 39984 ft 477 kts 193°
2026-05-04 09:34 -17.32046 -63.09337 39992 ft 474 kts 193°
2026-05-04 09:34 -17.38554 -63.10494 39993 ft 474 kts 193°
2026-05-04 09:35 -17.45070 -63.11653 39994 ft 474 kts 193°
2026-05-04 09:35 -17.51570 -63.12809 39996 ft 474 kts 194°
2026-05-04 09:37 -17.71107 -63.23307 39993 ft 456 kts 227°
2026-05-04 09:37 -17.73368 -63.25635 40010 ft 456 kts 227°
2026-05-04 09:38 -17.77875 -63.30313 40011 ft 456 kts 227°
2026-05-04 09:38 -17.82396 -63.34974 40010 ft 456 kts 227°
2026-05-04 09:39 -17.86941 -63.39632 40018 ft 455 kts 227°
2026-05-04 09:39 -17.91438 -63.44236 40018 ft 454 kts 227°
2026-05-04 09:40 -17.95962 -63.48871 40016 ft 455 kts 227°
2026-05-04 09:40 -18.00497 -63.53521 40025 ft 455 kts 227°
2026-05-04 09:42 -18.18612 -63.72139 40038 ft 455 kts 227°
2026-05-04 09:43 -18.23133 -63.76791 40055 ft 454 kts 227°
2026-05-04 09:43 -18.27604 -63.81398 40045 ft 452 kts 227°
2026-05-04 09:44 -18.32110 -63.86046 40043 ft 452 kts 227°
2026-05-04 09:46 -18.50059 -64.04596 40060 ft 452 kts 227°
2026-05-04 09:46 -18.54576 -64.09270 40060 ft 453 kts 227°
2026-05-04 09:47 -18.59043 -64.13900 40058 ft 452 kts 227°
2026-05-04 09:49 -18.77014 -64.32354 40026 ft 450 kts 227°
2026-05-04 09:51 -18.92735 -64.48565 40055 ft 451 kts 227°
2026-05-04 09:51 -18.97222 -64.53170 40050 ft 448 kts 227°
2026-05-04 09:52 -19.01673 -64.57716 40036 ft 447 kts 227°
2026-05-04 09:52 -19.06146 -64.62287 40053 ft 447 kts 227°
2026-05-04 09:53 -19.10609 -64.66865 40055 ft 446 kts 227°
2026-05-04 09:53 -19.15070 -64.71456 40039 ft 447 kts 227°
2026-05-04 09:54 -19.19509 -64.76012 40068 ft 447 kts 227°
2026-05-04 09:54 -19.23961 -64.80598 40061 ft 447 kts 227°
2026-05-04 09:55 -19.28413 -64.85187 40058 ft 447 kts 227°
2026-05-04 09:55 -19.32869 -64.89777 40052 ft 445 kts 227°
2026-05-04 09:56 -19.37279 -64.94365 40051 ft 442 kts 230°
2026-05-04 09:56 -19.41309 -64.99232 40073 ft 442 kts 232°
2026-05-04 09:57 -19.45288 -65.04205 40070 ft 442 kts 233°
2026-05-04 09:57 -19.49249 -65.09189 40066 ft 441 kts 233°
2026-05-04 09:58 -19.53217 -65.14181 40090 ft 443 kts 233°
2026-05-04 09:58 -19.57210 -65.19175 40088 ft 443 kts 233°
2026-05-04 10:00 -19.73120 -65.39123 40114 ft 443 kts 233°
2026-05-04 10:04 -20.01000 -65.74133 40126 ft 445 kts 233°
2026-05-04 10:04 -20.05002 -65.79163 40138 ft 445 kts 233°
2026-05-04 10:05 -20.08999 -65.84122 40123 ft 442 kts 233°
2026-05-04 10:05 -20.13013 -65.89086 40143 ft 441 kts 233°
2026-05-04 10:06 -20.17016 -65.94053 40153 ft 443 kts 233°
2026-05-04 10:06 -20.21018 -65.99034 40151 ft 443 kts 233°
2026-05-04 10:08 -20.35018 -66.16486 40177 ft 443 kts 233°
2026-05-04 10:08 -20.39016 -66.21485 40175 ft 443 kts 233°
2026-05-04 10:09 -20.43014 -66.26484 40191 ft 442 kts 233°
2026-05-04 10:09 -20.47012 -66.31486 40191 ft 444 kts 233°
2026-05-04 10:10 -20.51006 -66.36483 40194 ft 445 kts 233°
2026-05-04 10:10 -20.55012 -66.41501 40201 ft 443 kts 233°
2026-05-04 10:11 -20.59012 -66.46522 40203 ft 444 kts 233°
2026-05-04 10:11 -20.63015 -66.51549 40213 ft 444 kts 233°
2026-05-04 10:12 -20.66986 -66.56541 40223 ft 443 kts 233°
2026-05-04 10:12 -20.70988 -66.61575 40225 ft 445 kts 234°
2026-05-04 10:13 -20.74993 -66.66618 40235 ft 445 kts 234°
2026-05-04 10:13 -20.78999 -66.71658 40235 ft 445 kts 233°
2026-05-04 10:14 -20.83033 -66.76641 40246 ft 444 kts 233°
2026-05-04 10:16 -20.98512 -66.95773 40248 ft 444 kts 233°
2026-05-04 10:16 -21.02549 -67.00785 40245 ft 444 kts 233°
2026-05-04 10:17 -21.06591 -67.05806 40239 ft 444 kts 233°
2026-05-04 10:19 -21.22665 -67.25814 40224 ft 441 kts 234°
2026-05-04 10:19 -21.26665 -67.30806 40212 ft 441 kts 234°
2026-05-04 10:20 -21.30662 -67.35801 40211 ft 441 kts 234°
2026-05-04 10:20 -21.34661 -67.40800 40212 ft 441 kts 234°
2026-05-04 10:21 -21.38655 -67.45799 40208 ft 441 kts 234°
2026-05-04 10:21 -21.42655 -67.50808 40208 ft 441 kts 234°
2026-05-04 10:22 -21.48623 -67.58292 40210 ft 442 kts 234°
2026-05-04 10:23 -21.52631 -67.63324 40210 ft 444 kts 234°
2026-05-04 10:25 -21.68557 -67.83360 40252 ft 440 kts 235°
2026-05-04 10:25 -21.72542 -67.88383 40250 ft 441 kts 234°
2026-05-04 10:26 -21.76523 -67.93404 40252 ft 441 kts 235°
2026-05-04 10:26 -21.80498 -67.98431 40251 ft 440 kts 235°
2026-05-04 10:27 -21.84578 -68.03356 40253 ft 445 kts 229°
2026-05-04 10:27 -21.89677 -68.07292 40472 ft 459 kts 213°
2026-05-04 10:27 -21.92567 -68.08689 40689 ft 461 kts 210°
2026-05-04 10:28 -21.95547 -68.09973 40885 ft 461 kts 208°
2026-05-04 10:28 -21.98558 -68.11206 40986 ft 463 kts 208°
2026-05-04 10:28 -22.01580 -68.12418 41105 ft 463 kts 208°
2026-05-04 10:28 -22.04602 -68.13628 41211 ft 463 kts 208°
2026-05-04 10:29 -22.07622 -68.14844 41235 ft 463 kts 208°
2026-05-04 10:29 -22.13652 -68.17295 41228 ft 463 kts 208°
2026-05-04 10:30 -22.19675 -68.19753 41193 ft 463 kts 208°
2026-05-04 10:30 -22.25664 -68.22220 41165 ft 462 kts 209°
2026-05-04 10:31 -22.31655 -68.24693 41162 ft 460 kts 209°
2026-05-04 10:32 -22.52584 -68.33328 41084 ft 461 kts 209°
2026-05-04 10:33 -22.58573 -68.35802 41069 ft 459 kts 209°
2026-05-04 10:33 -22.64531 -68.38263 41079 ft 457 kts 209°
2026-05-04 10:34 -22.70483 -68.40727 41081 ft 457 kts 209°
2026-05-04 10:34 -22.76413 -68.43131 41071 ft 460 kts 207°
2026-05-04 10:35 -22.82581 -68.45129 41070 ft 464 kts 204°
2026-05-04 10:35 -22.88808 -68.47022 41046 ft 464 kts 205°
2026-05-04 10:36 -22.94995 -68.48966 41049 ft 461 kts 205°
2026-05-04 10:36 -23.01137 -68.50933 41066 ft 459 kts 205°
2026-05-04 10:37 -23.07282 -68.52842 41065 ft 459 kts 205°
2026-05-04 10:37 -23.13400 -68.54744 41069 ft 462 kts 205°
2026-05-04 10:39 -23.34954 -68.61770 41051 ft 460 kts 206°
2026-05-04 10:40 -23.41086 -68.63787 41046 ft 461 kts 206°
2026-05-04 10:40 -23.47192 -68.65794 41046 ft 461 kts 206°
2026-05-04 10:41 -23.53337 -68.67812 41047 ft 460 kts 206°
2026-05-04 10:41 -23.59470 -68.69829 41048 ft 459 kts 206°
2026-05-04 10:42 -23.65591 -68.71846 41050 ft 459 kts 206°
2026-05-04 10:42 -23.71709 -68.73866 41044 ft 459 kts 206°
2026-05-04 10:43 -23.77834 -68.75889 41048 ft 459 kts 206°
2026-05-04 10:45 -24.02268 -68.83976 41077 ft 459 kts 206°
2026-05-04 10:45 -24.08386 -68.86008 41082 ft 459 kts 206°
2026-05-04 10:46 -24.14499 -68.88040 41098 ft 458 kts 206°
2026-05-04 10:46 -24.20614 -68.90075 41080 ft 459 kts 206°
2026-05-04 10:47 -24.26726 -68.92113 41106 ft 459 kts 206°
2026-05-04 10:47 -24.32798 -68.94132 41110 ft 459 kts 206°
2026-05-04 10:49 -24.57218 -69.02285 41110 ft 458 kts 206°
2026-05-04 10:50 -24.63317 -69.04327 41129 ft 458 kts 206°
2026-05-04 10:52 -24.87424 -69.12992 41139 ft 451 kts 211°
2026-05-04 10:52 -24.93277 -69.15521 41131 ft 451 kts 210°
2026-05-04 10:54 -25.16792 -69.25335 41154 ft 452 kts 210°
2026-05-04 10:56 -25.40341 -69.35163 41115 ft 452 kts 210°
2026-05-04 10:57 -25.46224 -69.37626 41116 ft 452 kts 210°
2026-05-04 10:57 -25.52112 -69.40092 41059 ft 452 kts 210°
2026-05-04 10:58 -25.58017 -69.42544 41060 ft 454 kts 209°
2026-05-04 10:58 -25.63971 -69.44782 41061 ft 455 kts 208°
2026-05-04 10:59 -25.69994 -69.46984 41045 ft 455 kts 208°
2026-05-04 10:59 -25.76011 -69.49217 41069 ft 454 kts 208°
2026-05-04 11:00 -25.82000 -69.51469 41067 ft 454 kts 208°
2026-05-04 11:02 -26.05921 -69.60510 41040 ft 454 kts 208°
2026-05-04 11:05 -26.49718 -69.77160 41046 ft 453 kts 208°
2026-05-04 11:06 -26.56662 -69.79814 41018 ft 453 kts 208°
2026-05-04 11:06 -26.61624 -69.81707 41026 ft 453 kts 208°
2026-05-04 11:10 -27.03368 -69.97731 41005 ft 453 kts 209°
2026-05-04 11:12 -27.27225 -70.06949 41026 ft 453 kts 209°
2026-05-04 11:12 -27.33204 -70.09223 41027 ft 454 kts 208°
2026-05-04 11:13 -27.39204 -70.11463 41012 ft 454 kts 208°
2026-05-04 11:13 -27.45208 -70.13709 41018 ft 454 kts 208°
2026-05-04 11:14 -27.51202 -70.15965 41032 ft 454 kts 208°
2026-05-04 11:16 -27.75109 -70.25010 41024 ft 454 kts 208°
2026-05-04 11:16 -27.81096 -70.27278 41039 ft 454 kts 208°
2026-05-04 11:17 -27.87084 -70.29553 41017 ft 454 kts 208°
2026-05-04 11:19 -28.10997 -70.38646 41033 ft 454 kts 208°
2026-05-04 11:19 -28.16982 -70.40926 41023 ft 453 kts 208°
2026-05-04 11:20 -28.22959 -70.43219 41022 ft 453 kts 209°
2026-05-04 11:20 -28.28936 -70.45516 41021 ft 453 kts 209°
2026-05-04 11:22 -28.53143 -70.53865 41020 ft 470 kts 197°
2026-05-04 11:23 -28.59689 -70.54585 41020 ft 474 kts 195°
2026-05-04 11:25 -28.82662 -70.56664 41045 ft 473 kts 195°
2026-05-04 11:25 -28.89212 -70.57280 41028 ft 472 kts 195°
2026-05-04 11:27 -29.18705 -70.60126 41065 ft 474 kts 195°
2026-05-04 11:28 -29.25279 -70.60768 41079 ft 475 kts 195°
2026-05-04 11:28 -29.31826 -70.61403 41048 ft 473 kts 195°
2026-05-04 11:29 -29.38383 -70.62039 41043 ft 473 kts 195°
2026-05-04 11:29 -29.44964 -70.62681 41049 ft 473 kts 195°
2026-05-04 11:33 -29.90749 -70.67160 41042 ft 472 kts 196°
2026-05-04 11:33 -29.97260 -70.67804 41042 ft 472 kts 195°
2026-05-04 11:34 -30.03809 -70.68451 41039 ft 472 kts 195°
2026-05-04 11:34 -30.10375 -70.69095 41045 ft 472 kts 195°
2026-05-04 11:35 -30.16916 -70.69741 41038 ft 471 kts 195°
2026-05-04 11:35 -30.23412 -70.70385 41047 ft 471 kts 195°
2026-05-04 11:36 -30.29959 -70.71033 41054 ft 472 kts 195°
2026-05-04 11:36 -30.36503 -70.71680 41068 ft 471 kts 195°
2026-05-04 11:37 -30.43038 -70.72327 41059 ft 471 kts 195°
2026-05-04 11:37 -30.49564 -70.72979 41055 ft 471 kts 195°
2026-05-04 11:38 -30.56060 -70.73624 41061 ft 471 kts 195°
2026-05-04 11:38 -30.62592 -70.74275 41075 ft 471 kts 195°
2026-05-04 11:39 -30.69113 -70.74903 41030 ft 470 kts 195°
2026-05-04 11:41 -30.91887 -70.77111 41050 ft 470 kts 195°
2026-05-04 11:41 -30.98406 -70.77746 41058 ft 470 kts 195°
2026-05-04 11:42 -31.04946 -70.78381 41058 ft 472 kts 195°
2026-05-04 11:42 -31.11489 -70.79016 41054 ft 470 kts 195°
2026-05-04 11:43 -31.18005 -70.79654 41062 ft 470 kts 195°
2026-05-04 11:43 -31.24448 -70.80284 40773 ft 465 kts 195°
2026-05-04 11:43 -31.27680 -70.80602 39987 ft 467 kts 195°
2026-05-04 11:44 -31.30926 -70.80930 39136 ft 471 kts 195°
2026-05-04 11:44 -31.34208 -70.81253 38300 ft 474 kts 194°
2026-05-04 11:44 -31.37506 -70.81581 37405 ft 478 kts 194°
2026-05-04 11:44 -31.40826 -70.81911 36518 ft 481 kts 194°
2026-05-04 11:45 -31.44177 -70.82243 35711 ft 484 kts 193°
2026-05-04 11:45 -31.47536 -70.82575 35020 ft 486 kts 193°
2026-05-04 11:45 -31.50923 -70.82906 34127 ft 489 kts 192°
2026-05-04 11:45 -31.54337 -70.83237 33055 ft 495 kts 192°
2026-05-04 11:46 -31.57768 -70.83576 32195 ft 494 kts 192°
2026-05-04 11:46 -31.61164 -70.83914 31263 ft 497 kts 192°
2026-05-04 11:46 -31.64668 -70.84264 30302 ft 499 kts 192°
2026-05-04 11:46 -31.68088 -70.84605 29325 ft 499 kts 192°
2026-05-04 11:47 -31.71550 -70.84950 28390 ft 499 kts 191°
2026-05-04 11:47 -31.75030 -70.85235 27550 ft 500 kts 187°
2026-05-04 11:47 -31.78500 -70.85203 26876 ft 498 kts 185°
2026-05-04 11:47 -31.81948 -70.85081 26186 ft 494 kts 184°
2026-05-04 11:48 -31.85369 -70.84952 25521 ft 489 kts 184°
2026-05-04 11:48 -31.88759 -70.84827 24855 ft 485 kts 184°
2026-05-04 11:48 -31.92111 -70.84706 24191 ft 480 kts 184°
2026-05-04 11:48 -31.95385 -70.84589 23569 ft 476 kts 184°
2026-05-04 11:49 -31.98686 -70.84468 22830 ft 471 kts 184°
2026-05-04 11:49 -32.01945 -70.84350 22121 ft 466 kts 184°
2026-05-04 11:49 -32.05180 -70.84236 21365 ft 462 kts 184°
2026-05-04 11:49 -32.08378 -70.84123 20648 ft 457 kts 183°
2026-05-04 11:50 -32.11545 -70.84017 20104 ft 449 kts 183°
2026-05-04 11:50 -32.14621 -70.83901 19788 ft 436 kts 183°
2026-05-04 11:50 -32.17605 -70.83785 19482 ft 422 kts 183°
2026-05-04 11:50 -32.20490 -70.83665 19271 ft 408 kts 184°
2026-05-04 11:51 -32.23258 -70.83564 19064 ft 396 kts 184°
2026-05-04 11:51 -32.25972 -70.83470 18801 ft 385 kts 184°
2026-05-04 11:51 -32.28624 -70.83344 18458 ft 378 kts 183°
2026-05-04 11:51 -32.31342 -70.83222 18116 ft 405 kts 183°
2026-05-04 11:52 -32.34241 -70.83109 17716 ft 424 kts 182°
2026-05-04 11:52 -32.37209 -70.82956 17346 ft 428 kts 182°
2026-05-04 11:52 -32.40182 -70.82790 16987 ft 427 kts 181°
2026-05-04 11:52 -32.43136 -70.82626 16640 ft 425 kts 181°
2026-05-04 11:53 -32.46090 -70.82467 16294 ft 424 kts 181°
2026-05-04 11:53 -32.48031 -70.82364 16123 ft 421 kts 181°
2026-05-04 11:53 -32.51904 -70.82221 16060 ft 419 kts 185°
2026-05-04 11:53 -32.54817 -70.82384 16063 ft 418 kts 187°
2026-05-04 11:55 -32.74869 -70.81652 14578 ft 366 kts 186°
2026-05-04 11:55 -32.77337 -70.81779 14240 ft 345 kts 186°
2026-05-04 11:56 -32.79694 -70.81911 13693 ft 333 kts 186°
2026-05-04 11:56 -32.81999 -70.82050 12913 ft 329 kts 186°
2026-05-04 11:56 -32.84255 -70.82188 12149 ft 326 kts 185°
2026-05-04 11:56 -32.86438 -70.82322 11424 ft 323 kts 185°
2026-05-04 11:57 -32.88349 -70.82439 10766 ft 322 kts 185°
2026-05-04 11:57 -32.90576 -70.82577 10041 ft 320 kts 185°
2026-05-04 11:57 -32.92787 -70.82714 9274 ft 316 kts 184°
2026-05-04 11:57 -32.94963 -70.82848 8586 ft 309 kts 184°
2026-05-04 11:58 -32.97071 -70.82978 8020 ft 300 kts 184°
2026-05-04 11:58 -32.98450 -70.83063 7558 ft 299 kts 184°
2026-05-04 11:58 -33.00511 -70.82876 6906 ft 298 kts 170°
2026-05-04 11:58 -33.02547 -70.82464 6565 ft 293 kts 170°
2026-05-04 11:59 -33.04552 -70.82120 6217 ft 290 kts 173°
2026-05-04 11:59 -33.06540 -70.81920 6046 ft 287 kts 176°
2026-05-04 11:59 -33.08537 -70.81783 5809 ft 287 kts 176°
2026-05-04 11:59 -33.10526 -70.81663 5458 ft 285 kts 177°
2026-05-04 12:00 -33.12493 -70.81567 5146 ft 281 kts 178°
2026-05-04 12:00 -33.14444 -70.81495 5072 ft 280 kts 179°
2026-05-04 12:00 -33.16381 -70.81443 5067 ft 274 kts 179°
2026-05-04 12:00 -33.18225 -70.81388 5049 ft 256 kts 178°
2026-05-04 12:01 -33.19957 -70.81316 4969 ft 244 kts 178°
2026-05-04 12:01 -33.21638 -70.81208 4671 ft 242 kts 177°
2026-05-04 12:02 -33.31169 -70.80698 2812 ft 194 kts 179°
2026-05-04 12:03 -33.32470 -70.80632 2519 ft 180 kts 179°
2026-05-04 12:03 -33.33668 -70.80567 2279 ft 166 kts 178°
2026-05-04 12:03 -33.34783 -70.80500 2047 ft 155 kts 179°
2026-05-04 12:03 -33.35861 -70.80437 1860 ft 151 kts 179°
2026-05-04 12:04 -33.36885 -70.80385 1680 ft 146 kts 180°
2026-05-04 12:04 -33.37869 -70.80338 1579 ft 128 kts 176°
2026-05-04 12:04 -33.38590 -70.80297 1580 ft 80 kts 178°
2026-05-04 12:04 -33.39002 -70.80277 1580 ft 51 kts 177°
2026-05-04 12:05 -33.39286 -70.80222 1578 ft 36 kts 152°
2026-05-04 12:05 -33.39483 -70.80082 1573 ft 18 kts 141°
2026-05-04 12:05 -33.39502 -70.80059 1572 ft 0 kts 131°
2026-05-04 12:05 -33.39504 -70.80056 1572 ft 5 kts 125°
2026-05-04 12:06 -33.39528 -70.79973 1571 ft 8 kts 117°
2026-05-04 12:06 -33.39587 -70.79942 1571 ft 19 kts 173°
2026-05-04 12:06 -33.39758 -70.79930 1571 ft 26 kts 178°
2026-05-04 12:06 -33.39917 -70.79916 1571 ft 21 kts 176°
2026-05-04 12:07 -33.40046 -70.79905 1571 ft 18 kts 176°
2026-05-04 12:07 -33.40148 -70.79891 1571 ft 8 kts 149°
2026-05-04 12:07 -33.40156 -70.79849 1571 ft 13 kts 95°
2026-05-04 12:07 -33.40156 -70.79706 1571 ft 18 kts 89°
2026-05-04 12:08 -33.40129 -70.79615 1571 ft 7 kts 21°
2026-05-04 12:08 -33.40075 -70.79610 1571 ft 6 kts 357°
2026-05-04 12:08 -33.40063 -70.79611 1571 ft 0 kts 357°